YANNIS75 Weather Reports


time (UTC)temp
F
wind
direction
speed
knots
gust
knots
rain 1hr
in
rain 24hr
in
rain mn
in
humidity
%
barometer
mb
20260902134524 89 298 2.6 7.0 0.00 0.00 0.00 30 1017.7
20260902134503 89 308 1.7 7.0 0.00 0.00 0.00 30 1017.4
20260902134403 90 295 1.7 7.0 0.00 0.00 0.00 28 1017.4
20260902134303 90 294 1.7 7.0 0.00 0.00 0.00 28 1017.4
20260902134203 90 296 1.7 6.1 0.00 0.00 0.00 28 1017.3
20260902134103 90 308 1.7 6.1 0.00 0.00 0.00 28 1017.4
20260902134014 89 302 0.9 6.1 0.00 0.00 0.00 28 1017.6
20260902134003 90 320 1.7 6.1 0.00 0.00 0.00 28 1017.4
20260902133903 90 313 1.7 6.1 0.00 0.00 0.00 28 1017.5
20260902133803 90 305 1.7 6.1 0.00 0.00 0.00 28 1017.5
20260902133703 90 308 1.7 6.1 0.00 0.00 0.00 28 1017.5
20260902133603 90 295 1.7 6.1 0.00 0.00 0.00 29 1017.4
20260902133519 89 315 1.7 6.1 0.00 0.00 0.00 28 1017.7
20260902133503 90 293 1.7 6.1 0.00 0.00 0.00 29 1017.5
20260902133403 90 308 1.7 2.6 0.00 0.00 0.00 29 1017.4
20260902133303 90 309 1.7 2.6 0.00 0.00 0.00 30 1017.5
20260902133203 90 306 1.7 2.6 0.00 0.00 0.00 30 1017.4
20260902133103 90 307 1.7 2.6 0.00 0.00 0.00 30 1017.4
20260902133040 89 341 0.9 2.6 0.00 0.00 0.00 29 1017.7
20260902133003 90 300 1.7 2.6 0.00 0.00 0.00 30 1017.4
20260902132803 90 333 1.7 2.6 0.00 0.00 0.00 30 1017.5
20260902132703 90 102 1.7 1.7 0.00 0.00 0.00 30 1017.5
20260902132603 90 104 1.7 1.7 0.00 0.00 0.00 30 1017.5
20260902132515 89 277 0.0 2.6 0.00 0.00 0.00 29 1017.7
20260902132503 90 104 1.7 1.7 0.00 0.00 0.00 30 1017.5
20260902132403 90 110 1.7 1.7 0.00 0.00 0.00 30 1017.5
20260902132306 90 110 1.7 1.7 0.00 0.00 0.00 29 1017.4
20260902132203 90 81 1.7 3.5 0.00 0.00 0.00 29 1017.5
20260902132103 90 35 1.7 3.5 0.00 0.00 0.00 29 1017.5
20260902132003 90 311 1.7 3.5 0.00 0.00 0.00 29 1017.5
20260902131903 90 295 1.7 3.5 0.00 0.00 0.00 29 1017.5
20260902131803 90 304 1.7 3.5 0.00 0.00 0.00 29 1017.5
20260902131703 90 304 1.7 3.5 0.00 0.00 0.00 29 1017.5
20260902131603 90 304 1.7 3.5 0.00 0.00 0.00 29 1017.6
20260902131509 89 320 0.0 2.6 0.00 0.00 0.00 28 1017.8
20260902131503 90 302 1.7 3.5 0.00 0.00 0.00 29 1017.5
20260902131403 90 303 1.7 3.5 0.00 0.00 0.00 29 1017.6
20260902131203 90 300 1.7 3.5 0.00 0.00 0.00 29 1017.6
20260902131103 90 301 1.7 3.5 0.00 0.00 0.00 29 1017.6
20260902131007 90 289 1.7 3.5 0.00 0.00 0.00 28 1017.8
20260902131003 90 303 1.7 3.5 0.00 0.00 0.00 29 1017.6
20260902130903 90 307 1.7 3.5 0.00 0.00 0.00 29 1017.6
20260902130803 90 300 1.7 3.5 0.00 0.00 0.00 29 1017.6
20260902130703 90 311 1.7 3.5 0.00 0.00 0.00 29 1017.6
20260902130603 90 311 1.7 3.5 0.00 0.00 0.00 29 1017.6
20260902130507 89 267 0.9 3.5 0.00 0.00 0.00 28 1017.9
20260902130503 90 312 1.7 3.5 0.00 0.00 0.00 29 1017.6
20260902130403 90 318 1.7 3.5 0.00 0.00 0.00 28 1017.6
20260902130303 90 319 1.7 3.5 0.00 0.00 0.00 28 1017.7
20260902130203 90 337 1.7 3.5 0.00 0.00 0.00 28 1017.6
20260902130103 90 349 1.7 3.5 0.00 0.00 0.00 28 1017.7
20260902130024 89 125 0.0 3.5 0.00 0.00 0.00 28 1018.0
20260902130003 90 355 1.7 3.5 0.00 0.00 0.00 28 1017.7
20260902125803 90 353 1.7 3.5 0.00 0.00 0.00 28 1017.7
20260902125703 90 345 1.7 3.5 0.00 0.00 0.00 29 1017.7
20260902125603 90 342 1.7 3.5 0.00 0.00 0.00 29 1017.7
20260902125518 90 353 1.7 2.6 0.00 0.00 0.00 29 1017.7
20260902125510 89 305 0.9 3.5 0.00 0.00 0.00 29 1018.0
20260902125403 90 348 1.7 1.7 0.00 0.00 0.00 29 1017.7
20260902125203 90 339 1.7 1.7 0.00 0.00 0.00 29 1017.7
20260902125103 90 332 1.7 1.7 0.00 0.00 0.00 29 1017.7
20260902125011 89 101 0.9 4.3 0.00 0.00 0.00 29 1018.0
20260902125003 89 328 1.7 2.6 0.00 0.00 0.00 29 1017.7
20260902124903 89 331 1.7 6.1 0.00 0.00 0.00 29 1017.7
20260902124703 89 346 1.7 6.1 0.00 0.00 0.00 29 1017.7
20260902124603 89 334 1.7 6.1 0.00 0.00 0.00 29 1017.7
20260902124523 89 316 0.9 5.2 0.00 0.00 0.00 29 1018.0
20260902124503 89 332 1.7 6.1 0.00 0.00 0.00 29 1017.7
20260902124403 89 324 1.7 6.1 0.00 0.00 0.00 29 1017.7
20260902124303 89 315 1.7 6.1 0.00 0.00 0.00 29 1017.8
20260902124203 89 308 1.7 6.1 0.00 0.00 0.00 29 1017.7
20260902124103 89 315 1.7 6.1 0.00 0.00 0.00 29 1017.8
20260902124013 89 329 1.7 5.2 0.00 0.00 0.00 28 1018.1
20260902124003 89 315 1.7 6.1 0.00 0.00 0.00 30 1017.8
20260902123903 89 306 1.7 6.1 0.00 0.00 0.00 30 1017.8
20260902123803 89 328 1.7 5.2 0.00 0.00 0.00 30 1017.9
20260902123703 89 341 1.7 4.3 0.00 0.00 0.00 30 1017.8
20260902123603 89 351 1.7 4.3 0.00 0.00 0.00 31 1017.9
20260902123511 89 295 1.7 4.3 0.00 0.00 0.00 31 1018.1
20260902123503 89 356 1.7 4.3 0.00 0.00 0.00 31 1017.8
20260902123403 89 50 1.7 4.3 0.00 0.00 0.00 31 1017.8
20260902123303 89 60 1.7 4.3 0.00 0.00 0.00 31 1017.9
20260902123203 89 58 1.7 4.3 0.00 0.00 0.00 31 1017.9
20260902123103 89 69 1.7 5.2 0.00 0.00 0.00 31 1018.0
20260902123025 89 346 1.7 4.3 0.00 0.00 0.00 31 1018.2
20260902123003 89 63 1.7 5.2 0.00 0.00 0.00 32 1018.0
20260902122903 90 44 1.7 5.2 0.00 0.00 0.00 31 1018.0
20260902122803 90 43 1.7 5.2 0.00 0.00 0.00 31 1017.9
20260902122617 90 57 1.7 5.2 0.00 0.00 0.00 31 1018.0
20260902122515 89 294 0.9 5.2 0.00 0.00 0.00 1018.2
20260902122503 90 73 1.7 5.2 0.00 0.00 0.00 31 1018.0
20260902122305 90 68 1.7 5.2 0.00 0.00 0.00 31 1018.1
20260902122203 90 41 1.7 5.2 0.00 0.00 0.00 31 1018.1
20260902122118 90 348 1.7 5.2 0.00 0.00 0.00 31 1018.1
20260902122015 90 293 2.6 5.2 0.00 0.00 0.00 31 1018.4
20260902122003 90 47 1.7 4.3 0.00 0.00 0.00 31 1018.1
20260902121803 90 140 1.7 3.5 0.00 0.00 0.00 31 1018.2
20260902121703 90 142 1.7 3.5 0.00 0.00 0.00 31 1018.3
20260902121603 91 149 1.7 2.6 0.00 0.00 0.00 31 1018.3
20260902121532 90 206 0.9 1.7 0.00 0.00 0.00 31 1018.5
20260902121503 91 126 1.7 2.6 0.00 0.00 0.00 31 1018.3
20260902121403 91 26 1.7 2.6 0.00 0.00 0.00 32 1018.3
20260902121317 90 330 1.7 2.6 0.00 0.00 0.00 32 1018.3
20260902121203 90 298 1.7 2.6 0.00 0.00 0.00 32 1018.3
20260902121003 90 222 0.0 3.5 0.00 0.00 0.00 31 1018.5
20260902120903 90 283 1.7 2.6 0.00 0.00 0.00 31 1018.3
20260902120703 90 282 1.7 5.2 0.00 0.00 0.00 32 1018.4
20260902120603 90 282 1.7 5.2 0.00 0.00 0.00 32 1018.3
20260902120507 89 138 0.9 4.3 0.00 0.00 0.00 31 1018.6
20260902120503 90 290 1.7 5.2 0.00 0.00 0.00 32 1018.3
20260902120403 90 285 1.7 5.2 0.00 0.00 0.00 33 1018.3
20260902120303 89 285 1.7 5.2 0.00 0.00 0.00 33 1018.4
20260902120203 89 292 1.7 5.2 0.00 0.00 0.00 34 1018.4
20260902120015 89 230 0.9 4.3 0.00 0.00 0.00 33 1018.7
20260902120004 89 298 1.7 5.2 0.00 0.00 0.00 34 1018.4
20260902115903 89 301 1.7 5.2 0.00 0.00 0.00 34 1018.5
20260902115803 89 312 1.7 5.2 0.00 0.00 0.00 34 1018.5
20260902115703 89 319 1.7 5.2 0.00 0.00 0.00 34 1018.5
20260902115603 89 336 1.7 3.5 0.00 0.00 0.00 33 1018.5
20260902115511 88 309 0.9 3.5 0.00 0.00 0.00 33 1018.8
20260902115503 89 37 1.7 1.7 0.00 0.00 0.00 33 1018.5
20260902115403 89 63 1.7 3.5 0.00 0.00 0.00 33 1018.5
20260902115307 89 4 1.7 3.5 0.00 0.00 0.00 33 1018.5
20260902115203 89 71 1.7 3.5 0.00 0.00 0.00 33 1018.6
20260902115103 89 39 1.7 3.5 0.00 0.00 0.00 33 1018.6
20260902115010 88 141 0.9 3.5 0.00 0.00 0.00 32 1018.9
20260902115003 89 12 1.7 3.5 0.00 0.00 0.00 33 1018.6
20260902114803 89 356 1.7 3.5 0.00 0.00 0.00 33 1018.6
20260902114703 89 345 1.7 3.5 0.00 0.00 0.00 33 1018.6
20260902114603 89 291 1.7 3.5 0.00 0.00 0.00 34 1018.7
20260902114520 88 78 0.9 3.5 0.00 0.00 0.00 33 1018.9
20260902114503 89 283 1.7 3.5 0.00 0.00 0.00 34 1018.7
20260902114403 89 268 1.7 3.5 0.00 0.00 0.00 34 1018.7
20260902114303 89 261 1.7 5.2 0.00 0.00 0.00 34 1018.7
20260902114203 89 277 1.7 5.2 0.00 0.00 0.00 34 1018.8
20260902114103 89 292 1.7 5.2 0.00 0.00 0.00 34 1018.8
20260902114013 88 29 0.9 5.2 0.00 0.00 0.00 34 1019.0
20260902114003 89 288 1.7 5.2 0.00 0.00 0.00 35 1018.8
20260902113903 88 295 1.7 5.2 0.00 0.00 0.00 35 1018.8
20260902113803 88 288 1.7 5.2 0.00 0.00 0.00 35 1018.8
20260902113703 88 283 1.7 5.2 0.00 0.00 0.00 34 1018.8
20260902113603 88 108 1.7 5.2 0.00 0.00 0.00 34 1018.8
20260902113512 88 200 0.9 5.2 0.00 0.00 0.00 33 1019.1
20260902113503 88 66 1.7 5.2 0.00 0.00 0.00 35 1018.8
20260902113403 88 36 1.7 5.2 0.00 0.00 0.00 36 1018.8
20260902113303 88 68 1.7 5.2 0.00 0.00 0.00 36 1018.8
20260902113103 87 51 1.7 6.1 0.00 0.00 0.00 36 1018.9
20260902113023 87 319 0.9 7.0 0.00 0.00 0.00 36 1019.1
20260902113003 87 54 1.7 6.1 0.00 0.00 0.00 36 1018.9
20260902112903 87 2 1.7 6.1 0.00 0.00 0.00 36 1018.8
20260902112803 87 337 1.7 6.1 0.00 0.00 0.00 36 1018.8
20260902112603 88 320 1.7 6.1 0.00 0.00 0.00 36 1018.9
20260902112513 87 33 0.9 5.2 0.00 0.00 0.00 36 1019.1
20260902112503 88 312 1.7 6.1 0.00 0.00 0.00 37 1018.9
20260902112403 88 312 1.7 6.1 0.00 0.00 0.00 37 1019.0
20260902112203 88 310 1.7 6.1 0.00 0.00 0.00 37 1018.9
20260902112103 88 297 1.7 6.1 0.00 0.00 0.00 38 1018.9
20260902112015 87 292 2.6 5.2 0.00 0.00 0.00 37 1019.2
20260902112003 88 301 1.7 3.5 0.00 0.00 0.00 37 1018.9
20260902111903 88 298 1.7 2.6 0.00 0.00 0.00 38 1019.0
20260902111803 87 309 1.7 2.6 0.00 0.00 0.00 38 1019.0
20260902111603 87 313 1.7 2.6 0.00 0.00 0.00 38 1019.0
20260902111531 87 311 0.9 2.6 0.00 0.00 0.00 37 1019.3
20260902111503 87 330 1.7 2.6 0.00 0.00 0.00 38 1019.0
20260902111403 87 352 1.7 3.5 0.00 0.00 0.00 38 1019.0
20260902111303 87 9 1.7 3.5 0.00 0.00 0.00 37 1019.0
20260902111203 87 4 1.7 3.5 0.00 0.00 0.00 37 1019.1
20260902111103 87 20 1.7 3.5 0.00 0.00 0.00 37 1019.1
20260902111019 87 71 0.9 2.6 0.00 0.00 0.00 37 1019.4
20260902111003 88 15 1.7 3.5 0.00 0.00 0.00 37 1019.1
20260902110903 88 18 1.7 3.5 0.00 0.00 0.00 37 1019.1
20260902110803 88 359 1.7 3.5 0.00 0.00 0.00 37 1019.0
20260902110703 88 2 1.7 3.5 0.00 0.00 0.00 38 1019.1
20260902110603 88 29 1.7 3.5 0.00 0.00 0.00 38 1019.1
20260902110518 88 54 0.9 3.5 0.00 0.00 0.00 37 1019.4
20260902110503 88 16 1.7 3.5 0.00 0.00 0.00 38 1019.1
20260902110403 88 330 1.7 3.5 0.00 0.00 0.00 38 1019.1
20260902110303 88 316 1.7 7.8 0.00 0.00 0.00 38 1019.1
20260902110203 88 312 1.7 7.8 0.00 0.00 0.00 38 1019.1
20260902110017 87 203 0.9 7.8 0.00 0.00 0.00 38 1019.4
20260902110005 88 305 1.7 7.8 0.00 0.00 0.00 38 1019.2
20260902105903 88 311 1.7 7.8 0.00 0.00 0.00 38 1019.2
20260902105803 88 315 1.7 7.8 0.00 0.00 0.00 38 1019.3
20260902105603 88 300 1.7 7.8 0.00 0.00 0.00 38 1019.3
20260902105506 87 202 0.9 7.8 0.00 0.00 0.00 38 1019.5
20260902105503 88 303 1.7 7.8 0.00 0.00 0.00 38 1019.2
20260902105403 88 303 1.7 7.8 0.00 0.00 0.00 38 1019.3
20260902105306 88 302 1.7 7.8 0.00 0.00 0.00 38 1019.3
20260902105203 88 300 1.7 5.2 0.00 0.00 0.00 38 1019.2
20260902105009 88 313 2.6 5.2 0.00 0.00 0.00 37 1019.5
20260902104903 88 283 1.7 3.5 0.00 0.00 0.00 38 1019.3
20260902104803 88 272 1.7 3.5 0.00 0.00 0.00 38 1019.3
20260902104703 88 280 1.7 2.6 0.00 0.00 0.00 38 1019.3
20260902104603 88 273 1.7 2.6 0.00 0.00 0.00 38 1019.3
20260902104518 87 313 0.9 2.6 0.00 0.00 0.00 38 1019.6
20260902104503 88 268 1.7 2.6 0.00 0.00 0.00 38 1019.2
20260902104403 88 272 1.7 2.6 0.00 0.00 0.00 39 1019.3
20260902104203 87 285 1.7 2.6 0.00 0.00 0.00 39 1019.3
20260902104103 87 282 1.7 3.5 0.00 0.00 0.00 39 1019.3
20260902104010 87 120 0.9 3.5 0.00 0.00 0.00 39 1019.6
20260902104003 87 280 1.7 3.5 0.00 0.00 0.00 39 1019.4
20260902103903 87 291 1.7 3.5 0.00 0.00 0.00 40 1019.3
20260902103803 86 287 1.7 3.5 0.00 0.00 0.00 40 1019.3
20260902103703 86 287 1.7 3.5 0.00 0.00 0.00 40 1019.4
20260902103603 86 293 1.7 6.1 0.00 0.00 0.00 40 1019.3
20260902103510 85 31 0.9 6.1 0.00 0.00 0.00 40 1019.6
20260902103503 86 294 1.7 6.1 0.00 0.00 0.00 40 1019.3
20260902103403 86 293 1.7 6.1 0.00 0.00 0.00 40 1019.3
20260902103103 86 309 1.7 6.1 0.00 0.00 0.00 40 1019.4
20260902103025 85 272 1.7 6.1 0.00 0.00 0.00 40 1019.7
20260902103003 86 325 1.7 6.1 0.00 0.00 0.00 40 1019.4
20260902102916 86 330 1.7 6.1 0.00 0.00 0.00 40 1019.4
20260902102803 86 333 1.7 6.1 0.00 0.00 0.00 40 1019.4
20260902102603 86 339 1.7 6.1 0.00 0.00 0.00 40 1019.4
20260902102513 85 307 2.6 6.1 0.00 0.00 0.00 40 1019.7
20260902102503 86 347 1.7 3.5 0.00 0.00 0.00 41 1019.5
20260902102403 86 346 1.7 3.5 0.00 0.00 0.00 40 1019.4
20260902102307 86 349 1.7 3.5 0.00 0.00 0.00 40 1019.5
20260902102203 86 343 1.7 7.8 0.00 0.00 0.00 40 1019.5
20260902102103 86 328 1.7 7.8 0.00 0.00 0.00 40 1019.5
20260902102014 85 69 0.9 7.0 0.00 0.00 0.00 40 1019.8
20260902102003 86 321 1.7 7.8 0.00 0.00 0.00 40 1019.5
20260902101903 86 311 1.7 7.8 0.00 0.00 0.00 40 1019.5
20260902101803 86 307 1.7 7.8 0.00 0.00 0.00 40 1019.5
20260902101603 86 307 1.7 7.8 0.00 0.00 0.00 40 1019.5
20260902101534 86 323 1.7 7.0 0.00 0.00 0.00 40 1019.8
20260902101503 86 302 1.7 7.8 0.00 0.00 0.00 40 1019.6
20260902101403 86 308 1.7 7.8 0.00 0.00 0.00 40 1019.6
20260902101303 86 308 1.7 7.8 0.00 0.00 0.00 40 1019.7
20260902101203 86 312 1.7 7.8 0.00 0.00 0.00 41 1019.7
20260902101103 86 313 1.7 7.0 0.00 0.00 0.00 41 1019.7
20260902101016 86 298 1.7 7.0 0.00 0.00 0.00 40 1020.0
20260902101003 86 310 1.7 7.0 0.00 0.00 0.00 41 1019.8
20260902100803 86 326 1.7 7.8 0.00 0.00 0.00 41 1019.8
20260902100703 85 322 1.7 7.8 0.00 0.00 0.00 42 1019.9
20260902100603 85 318 1.7 7.8 0.00 0.00 0.00 42 1019.9
20260902100517 85 281 1.7 7.8 0.00 0.00 0.00 41 1020.2
20260902100403 85 323 1.7 7.8 0.00 0.00 0.00 42 1019.9
20260902100303 85 321 1.7 7.8 0.00 0.00 0.00 42 1019.9
20260902100203 85 322 1.7 7.8 0.00 0.00 0.00 42 1019.9
20260902100029 85 290 0.9 7.8 0.00 0.00 0.00 41 1020.2
20260902100003 85 331 1.7 7.8 0.00 0.00 0.00 41 1019.9
20260902095903 85 327 1.7 7.8 0.00 0.00 0.00 41 1020.0
20260902095803 85 330 1.7 7.0 0.00 0.00 0.00 42 1020.0
20260902095703 85 346 1.7 6.1 0.00 0.00 0.00 42 1019.9
20260902095603 85 11 1.7 6.1 0.00 0.00 0.00 42 1019.9
20260902095514 85 342 2.6 5.2 0.00 0.00 0.00 41 1020.2
20260902095503 85 56 1.7 4.3 0.00 0.00 0.00 42 1019.9
20260902095306 85 104 1.7 4.3 0.00 0.00 0.00 42 1019.9
20260902095203 85 117 1.7 4.3 0.00 0.00 0.00 42 1019.9
20260902095103 85 118 1.7 4.3 0.00 0.00 0.00 42 1019.9
20260902095005 84 100 1.7 3.5 0.00 0.00 0.00 42 1020.2
20260902095003 85 118 1.7 4.3 0.00 0.00 0.00 42 1020.0
20260902094803 84 112 1.7 4.3 0.00 0.00 0.00 42 1020.0
20260902094703 84 115 1.7 4.3 0.00 0.00 0.00 42 1020.0
20260902094603 84 105 1.7 4.3 0.00 0.00 0.00 42 1020.0
20260902094516 84 144 1.7 3.5 0.00 0.00 0.00 42 1020.3
20260902094503 84 93 1.7 4.3 0.00 0.00 0.00 42 1020.0
20260902094403 84 75 1.7 4.3 0.00 0.00 0.00 43 1020.0
20260902094303 84 34 1.7 4.3 0.00 0.00 0.00 43 1020.0
20260902094203 84 46 1.7 4.3 0.00 0.00 0.00 43 1020.0
20260902094103 84 11 1.7 3.5 0.00 0.00 0.00 43 1020.1
20260902094009 83 67 0.0 2.6 0.00 0.00 0.00 42 1020.3
20260902094003 84 24 1.7 3.5 0.00 0.00 0.00 43 1020.1
20260902093903 84 11 1.7 3.5 0.00 0.00 0.00 43 1020.1
20260902093703 84 327 1.7 4.3 0.00 0.00 0.00 43 1020.1
20260902093603 84 341 1.7 4.3 0.00 0.00 0.00 43 1020.1
20260902093511 83 11 0.9 4.3 0.00 0.00 0.00 43 1020.4
20260902093503 84 333 1.7 4.3 0.00 0.00 0.00 43 1020.1
20260902093303 84 324 1.7 4.3 0.00 0.00 0.00 43 1020.1
20260902093203 84 324 1.7 6.1 0.00 0.00 0.00 43 1020.1
20260902093117 84 332 1.7 6.1 0.00 0.00 0.00 44 1020.1
20260902093025 83 77 0.9 5.2 0.00 0.00 0.00 43 1020.4
20260902093003 84 326 1.7 6.1 0.00 0.00 0.00 44 1020.1
20260902092703 84 80 1.7 6.1 0.00 0.00 0.00 44 1020.1
20260902092603 84 92 1.7 6.1 0.00 0.00 0.00 43 1020.1
20260902092510 83 311 1.7 5.2 0.00 0.00 0.00 43 1020.4
20260902092503 84 89 1.7 6.1 0.00 0.00 0.00 43 1020.1
20260902092403 84 88 1.7 6.1 0.00 0.00 0.00 43 1020.2
20260902092305 84 83 1.7 6.1 0.00 0.00 0.00 43 1020.1
20260902092203 84 77 1.7 6.1 0.00 0.00 0.00 43 1020.2
20260902092103 84 65 1.7 3.5 0.00 0.00 0.00 43 1020.2
20260902092012 83 122 0.9 2.6 0.00 0.00 0.00 42 1020.5
20260902092003 84 54 1.7 2.6 0.00 0.00 0.00 43 1020.3
20260902091903 84 48 1.7 2.6 0.00 0.00 0.00 43 1020.3
20260902091803 84 37 1.7 2.6 0.00 0.00 0.00 43 1020.3
20260902091703 84 41 1.7 2.6 0.00 0.00 0.00 42 1020.3
20260902091603 84 32 1.7 2.6 0.00 0.00 0.00 42 1020.3
20260902091532 84 360 0.9 2.6 0.00 0.00 0.00 42 1020.6
20260902091503 84 28 1.7 2.6 0.00 0.00 0.00 42 1020.3
20260902091403 84 24 1.7 4.3 0.00 0.00 0.00 42 1020.3
20260902091303 84 7 1.7 4.3 0.00 0.00 0.00 42 1020.3
20260902091203 85 8 1.7 4.3 0.00 0.00 0.00 42 1020.3
20260902091103 84 339 1.7 4.3 0.00 0.00 0.00 42 1020.3
20260902091014 84 95 0.0 4.3 0.00 0.00 0.00 42 1020.6
20260902091003 84 334 1.7 4.3 0.00 0.00 0.00 42 1020.3
20260902090903 84 343 1.7 4.3 0.00 0.00 0.00 43 1020.3
20260902090803 84 338 1.7 4.3 0.00 0.00 0.00 43 1020.4
20260902090703 84 332 1.7 4.3 0.00 0.00 0.00 43 1020.4
20260902090618 84 327 1.7 4.3 0.00 0.00 0.00 43 1020.4
20260902090515 83 317 0.9 4.3 0.00 0.00 0.00 43 1020.6
20260902090503 84 318 1.7 4.3 0.00 0.00 0.00 43 1020.4
20260902090303 84 327 1.7 4.3 0.00 0.00 0.00 43 1020.4
20260902090203 84 325 1.7 4.3 0.00 0.00 0.00 43 1020.4
20260902090032 83 140 0.9 3.5 0.00 0.00 0.00 43 1020.7
20260902090004 84 318 1.7 4.3 0.00 0.00 0.00 43 1020.4
20260902085918 84 316 1.7 4.3 0.00 0.00 0.00 43 1020.4
20260902085803 84 314 1.7 4.3 0.00 0.00 0.00 43 1020.4
20260902085514 83 291 1.7 3.5 0.00 0.00 0.00 42 1020.7
20260902085503 84 347 1.7 3.5 0.00 0.00 0.00 43 1020.4
20260902085403 84 347 1.7 3.5 0.00 0.00 0.00 43 1020.4
20260902085317 84 20 1.7 3.5 0.00 0.00 0.00 43 1020.4
20260902085017 83 140 0.9 2.6 0.00 0.00 0.00 42 1020.7
20260902085003 84 58 1.7 3.5 0.00 0.00 0.00 42 1020.4
20260902084903 84 66 1.7 3.5 0.00 0.00 0.00 42 1020.4
20260902084803 84 72 1.7 3.5 0.00 0.00 0.00 42 1020.4
20260902084703 84 47 1.7 3.5 0.00 0.00 0.00 42 1020.4
20260902084603 85 351 1.7 3.5 0.00 0.00 0.00 42 1020.4
20260902084531 84 5 0.9 2.6 0.00 0.00 0.00 41 1020.7
20260902084403 85 315 1.7 2.6 0.00 0.00 0.00 42 1020.4
20260902084303 85 309 1.7 2.6 0.00 0.00 0.00 42 1020.4
20260902084103 84 314 1.7 2.6 0.00 0.00 0.00 42 1020.4
20260902084005 84 235 0.0 2.6 0.00 0.00 0.00 41 1020.7
20260902084003 84 315 1.7 2.6 0.00 0.00 0.00 42 1020.5
20260902083903 84 313 1.7 2.6 0.00 0.00 0.00 42 1020.4
20260902083803 84 310 1.7 2.6 0.00 0.00 0.00 42 1020.4
20260902083703 84 309 1.7 2.6 0.00 0.00 0.00 42 1020.4
20260902083603 84 308 1.7 2.6 0.00 0.00 0.00 42 1020.4
20260902083510 84 315 0.9 2.6 0.00 0.00 0.00 41 1020.7
20260902083403 85 297 1.7 3.5 0.00 0.00 0.00 42 1020.4
20260902083303 84 305 1.7 3.5 0.00 0.00 0.00 42 1020.4
20260902083203 84 309 1.7 3.5 0.00 0.00 0.00 42 1020.4
20260902083019 84 316 0.9 3.5 0.00 0.00 0.00 41 1020.7
20260902083003 84 343 1.7 3.5 0.00 0.00 0.00 42 1020.4
20260902082903 84 349 1.7 3.5 0.00 0.00 0.00 42 1020.4
20260902082803 84 18 1.7 3.5 0.00 0.00 0.00 42 1020.5
20260902082703 84 77 1.7 3.5 0.00 0.00 0.00 43 1020.5
20260902082603 84 65 1.7 3.5 0.00 0.00 0.00 43 1020.4
20260902082510 83 176 0.9 3.5 0.00 0.00 0.00 42 1020.7
20260902082503 84 50 1.7 3.5 0.00 0.00 0.00 43 1020.4
20260902082308 84 30 1.7 3.5 0.00 0.00 0.00 43 1020.4
20260902082203 84 79 1.7 3.5 0.00 0.00 0.00 43 1020.5
20260902082103 84 88 1.7 3.5 0.00 0.00 0.00 43 1020.4
20260902082012 83 348 0.9 3.5 0.00 0.00 0.00 42 1020.7
20260902082003 84 107 1.7 3.5 0.00 0.00 0.00 43 1020.4
20260902081903 84 126 1.7 3.5 0.00 0.00 0.00 43 1020.4
20260902081803 84 137 1.7 3.5 0.00 0.00 0.00 43 1020.4
20260902081603 83 100 1.7 3.5 0.00 0.00 0.00 42 1020.4
20260902081529 83 281 0.9 3.5 0.00 0.00 0.00 42 1020.7
20260902081503 83 80 1.7 3.5 0.00 0.00 0.00 42 1020.4
20260902081403 83 87 1.7 3.5 0.00 0.00 0.00 42 1020.4
20260902081203 83 347 1.7 3.5 0.00 0.00 0.00 42 1020.4
20260902081103 83 314 1.7 3.5 0.00 0.00 0.00 42 1020.4
20260902081012 83 259 0.9 3.5 0.00 0.00 0.00 42 1020.7
20260902081003 83 331 1.7 3.5 0.00 0.00 0.00 42 1020.5
20260902080903 83 339 1.7 3.5 0.00 0.00 0.00 42 1020.4
20260902080803 84 332 1.7 3.5 0.00 0.00 0.00 42 1020.5
20260902080703 84 335 1.7 3.5 0.00 0.00 0.00 42 1020.5
20260902080513 83 30 0.9 2.6 0.00 0.00 0.00 41 1020.8
20260902080403 84 313 1.7 3.5 0.00 0.00 0.00 41 1020.5
20260902080303 84 305 1.7 3.5 0.00 0.00 0.00 41 1020.5
20260902080203 84 312 1.7 3.5 0.00 0.00 0.00 41 1020.6
20260902080103 84 317 1.7 3.5 0.00 0.00 0.00 41 1020.6
20260902080030 83 319 0.9 2.6 0.00 0.00 0.00 41 1020.8
20260902080003 84 312 1.7 3.5 0.00 0.00 0.00 41 1020.6
20260902075903 84 302 1.7 3.5 0.00 0.00 0.00 41 1020.6
20260902075703 83 298 1.7 3.5 0.00 0.00 0.00 41 1020.6
20260902075603 83 286 1.7 3.5 0.00 0.00 0.00 42 1020.6
20260902075514 83 271 0.9 4.3 0.00 0.00 0.00 41 1020.9
20260902075403 83 291 1.7 3.5 0.00 0.00 0.00 42 1020.6
20260902075306 83 298 1.7 5.2 0.00 0.00 0.00 42 1020.7
20260902075203 83 299 1.7 5.2 0.00 0.00 0.00 42 1020.7
20260902075103 83 297 1.7 5.2 0.00 0.00 0.00 42 1020.6
20260902075014 82 264 0.9 4.3 0.00 0.00 0.00 42 1020.9
20260902075003 83 300 1.7 5.2 0.00 0.00 0.00 42 1020.7
20260902074903 82 311 1.7 5.2 0.00 0.00 0.00 42 1020.6
20260902074803 82 310 1.7 5.2 0.00 0.00 0.00 42 1020.7
20260902074703 82 311 1.7 5.2 0.00 0.00 0.00 42 1020.6
20260902074603 82 317 1.7 5.2 0.00 0.00 0.00 42 1020.6
20260902074531 82 275 0.9 4.3 0.00 0.00 0.00 41 1020.9
20260902074503 82 321 1.7 5.2 0.00 0.00 0.00 42 1020.6
20260902074403 83 323 1.7 5.2 0.00 0.00 0.00 42 1020.6
20260902074303 83 336 1.7 5.2 0.00 0.00 0.00 42 1020.6
20260902074203 83 339 1.7 3.5 0.00 0.00 0.00 42 1020.6
20260902074103 83 351 1.7 2.6 0.00 0.00 0.00 42 1020.6
20260902074015 82 315 0.9 2.6 0.00 0.00 0.00 41 1020.8
20260902074003 83 349 1.7 2.6 0.00 0.00 0.00 42 1020.5
20260902073903 83 334 1.7 2.6 0.00 0.00 0.00 42 1020.6
20260902073803 83 317 1.7 2.6 0.00 0.00 0.00 42 1020.5
20260902073703 82 316 1.7 6.1 0.00 0.00 0.00 42 1020.5
20260902073603 82 322 1.7 6.1 0.00 0.00 0.00 42 1020.5
20260902073514 82 337 0.9 3.5 0.00 0.00 0.00 42 1020.8
20260902073503 82 317 1.7 6.1 0.00 0.00 0.00 42 1020.5
20260902073403 82 302 1.7 6.1 0.00 0.00 0.00 42 1020.5
20260902073303 82 296 1.7 6.1 0.00 0.00 0.00 42 1020.5
20260902073203 82 282 1.7 6.1 0.00 0.00 0.00 42 1020.5
20260902073103 82 274 1.7 6.1 0.00 0.00 0.00 43 1020.5
20260902073016 81 319 0.9 6.1 0.00 0.00 0.00 42 1020.8
20260902073003 82 271 1.7 6.1 0.00 0.00 0.00 43 1020.5
20260902072903 82 273 1.7 6.1 0.00 0.00 0.00 43 1020.5
20260902072703 81 272 1.7 6.1 0.00 0.00 0.00 43 1020.5
20260902072603 81 271 1.7 5.2 0.00 0.00 0.00 44 1020.5
20260902072510 81 301 1.7 4.3 0.00 0.00 0.00 43 1020.8
20260902072503 81 269 1.7 4.3 0.00 0.00 0.00 44 1020.6
20260902072403 81 273 1.7 4.3 0.00 0.00 0.00 44 1020.6
20260902072309 81 260 1.7 4.3 0.00 0.00 0.00 44 1020.6
20260902072203 81 271 1.7 4.3 0.00 0.00 0.00 44 1020.6
20260902072103 80 283 1.7 4.3 0.00 0.00 0.00 44 1020.6
20260902072007 80 289 0.9 3.5 0.00 0.00 0.00 44 1020.9
20260902072003 80 283 1.7 3.5 0.00 0.00 0.00 44 1020.6
20260902071903 80 281 1.7 3.5 0.00 0.00 0.00 44 1020.6
20260902071803 80 306 1.7 3.5 0.00 0.00 0.00 44 1020.6
20260902071703 80 296 1.7 3.5 0.00 0.00 0.00 44 1020.6
20260902071524 80 319 0.0 3.5 0.00 0.00 0.00 44 1020.9
20260902071503 80 302 1.7 3.5 0.00 0.00 0.00 44 1020.6
20260902071403 80 313 1.7 3.5 0.00 0.00 0.00 44 1020.6
20260902071303 80 318 1.7 3.5 0.00 0.00 0.00 44 1020.6
20260902071203 80 331 1.7 3.5 0.00 0.00 0.00 45 1020.6
20260902071103 80 330 1.7 2.6 0.00 0.00 0.00 45 1020.6
20260902071012 80 288 0.9 1.7 0.00 0.00 0.00 44 1020.9
20260902071003 80 4 1.7 1.7 0.00 0.00 0.00 45 1020.6
20260902070903 80 347 1.7 5.2 0.00 0.00 0.00 45 1020.5
20260902070803 79 335 1.7 5.2 0.00 0.00 0.00 45 1020.6
20260902070703 79 331 1.7 5.2 0.00 0.00 0.00 45 1020.6
20260902070603 79 327 1.7 5.2 0.00 0.00 0.00 45 1020.6
20260902070513 79 309 0.9 4.3 0.00 0.00 0.00 45 1020.8
20260902070503 79 330 1.7 5.2 0.00 0.00 0.00 45 1020.6
20260902070203 80 324 1.7 5.2 0.00 0.00 0.00 44 1020.6
20260902070028 79 95 1.7 4.3 0.00 0.00 0.00 44 1020.8
20260902070004 80 316 1.7 5.2 0.00 0.00 0.00 44 1020.6
20260902065903 80 312 1.7 5.2 0.00 0.00 0.00 44 1020.6
20260902065803 80 301 1.7 3.5 0.00 0.00 0.00 44 1020.5
20260902065703 80 292 1.7 5.2 0.00 0.00 0.00 44 1020.6
20260902065603 81 286 1.7 5.2 0.00 0.00 0.00 44 1020.5
20260902065516 80 341 0.9 5.2 0.00 0.00 0.00 43 1020.8
20260902065503 80 293 1.7 5.2 0.00 0.00 0.00 44 1020.6
20260902065403 80 294 1.7 5.2 0.00 0.00 0.00 44 1020.6
20260902065306 80 284 1.7 5.2 0.00 0.00 0.00 44 1020.6
20260902065203 80 287 1.7 5.2 0.00 0.00 0.00 44 1020.5
20260902065103 80 286 1.7 5.2 0.00 0.00 0.00 44 1020.5
20260902065014 80 305 0.9 5.2 0.00 0.00 0.00 43 1020.8
20260902065003 80 291 1.7 5.2 0.00 0.00 0.00 44 1020.5
20260902064903 80 295 1.7 5.2 0.00 0.00 0.00 44 1020.6
20260902064803 81 295 1.7 5.2 0.00 0.00 0.00 43 1020.6
20260902064703 81 299 1.7 5.2 0.00 0.00 0.00 43 1020.6
20260902064603 81 302 1.7 3.5 0.00 0.00 0.00 43 1020.5
20260902064529 80 336 1.7 3.5 0.00 0.00 0.00 43 1020.8
20260902064503 81 288 1.7 3.5 0.00 0.00 0.00 43 1020.5
20260902064403 81 296 1.7 3.5 0.00 0.00 0.00 43 1020.5
20260902064303 81 312 1.7 3.5 0.00 0.00 0.00 43 1020.5
20260902064203 81 300 1.7 3.5 0.00 0.00 0.00 43 1020.5
20260902064103 81 297 1.7 3.5 0.00 0.00 0.00 43 1020.5
20260902064014 80 14 1.7 3.5 0.00 0.00 0.00 43 1020.8
20260902063903 80 295 1.7 5.2 0.00 0.00 0.00 44 1020.5
20260902063803 80 296 1.7 5.2 0.00 0.00 0.00 44 1020.5
20260902063517 80 254 0.0 5.2 0.00 0.00 0.00 43 1020.7
20260902063503 80 278 1.7 5.2 0.00 0.00 0.00 44 1020.4
20260902063403 80 276 1.7 5.2 0.00 0.00 0.00 44 1020.4
20260902063303 80 270 1.7 5.2 0.00 0.00 0.00 44 1020.4
20260902063203 80 268 1.7 5.2 0.00 0.00 0.00 44 1020.4
20260902063103 80 256 1.7 5.2 0.00 0.00 0.00 44 1020.5
20260902063033 79 99 0.9 5.2 0.00 0.00 0.00 44 1020.7
20260902063003 80 268 1.7 5.2 0.00 0.00 0.00 44 1020.4
20260902062903 80 267 1.7 5.2 0.00 0.00 0.00 44 1020.4
20260902062803 80 272 1.7 3.5 0.00 0.00 0.00 44 1020.4
20260902062703 80 264 1.7 3.5 0.00 0.00 0.00 45 1020.4
20260902062603 80 293 1.7 3.5 0.00 0.00 0.00 45 1020.4
20260902062516 79 22 0.0 3.5 0.00 0.00 0.00 44 1020.7
20260902062305 79 301 1.7 3.5 0.00 0.00 0.00 45 1020.4
20260902062203 79 301 1.7 3.5 0.00 0.00 0.00 45 1020.4
20260902062103 79 313 1.7 3.5 0.00 0.00 0.00 45 1020.4
20260902062006 79 319 0.9 3.5 0.00 0.00 0.00 45 1020.7
20260902062003 79 309 1.7 3.5 0.00 0.00 0.00 45 1020.4
20260902061903 79 306 1.7 3.5 0.00 0.00 0.00 45 1020.4
20260902061803 79 303 1.7 2.6 0.00 0.00 0.00 46 1020.4
20260902061703 79 309 1.7 2.6 0.00 0.00 0.00 45 1020.4
20260902061603 79 313 1.7 2.6 0.00 0.00 0.00 46 1020.4
20260902061535 78 311 0.9 2.6 0.00 0.00 0.00 45 1020.7
20260902061303 79 297 1.7 3.5 0.00 0.00 0.00 46 1020.4
20260902061203 79 292 1.7 3.5 0.00 0.00 0.00 46 1020.3
20260902061103 78 295 1.7 3.5 0.00 0.00 0.00 46 1020.4
20260902061014 78 221 0.0 3.5 0.00 0.00 0.00 45 1020.6
20260902061003 78 300 1.7 3.5 0.00 0.00 0.00 46 1020.4
20260902060903 78 304 1.7 3.5 0.00 0.00 0.00 46 1020.4
20260902060803 78 306 1.7 3.5 0.00 0.00 0.00 46 1020.4
20260902060703 78 300 1.7 3.5 0.00 0.00 0.00 46 1020.4
20260902060603 78 291 1.7 3.5 0.00 0.00 0.00 46 1020.4
20260902060512 78 296 0.9 3.5 0.00 0.00 0.00 46 1020.7
20260902060503 78 291 1.7 3.5 0.00 0.00 0.00 46 1020.4
20260902060403 78 292 1.7 2.6 0.00 0.00 0.00 47 1020.4
20260902060303 78 287 1.7 3.5 0.00 0.00 0.00 47 1020.4
20260902060203 78 288 1.7 3.5 0.00 0.00 0.00 47 1020.4
20260902060026 77 328 0.9 3.5 0.00 0.00 0.00 47 1020.7
20260902060003 78 281 1.7 3.5 0.00 0.00 0.00 47 1020.4
20260902055903 78 274 1.7 3.5 0.00 0.00 0.00 47 1020.4
20260902055803 77 276 1.7 3.5 0.00 0.00 0.00 47 1020.4
20260902055703 77 280 1.7 3.5 0.00 0.00 0.00 47 1020.4
20260902055603 77 287 1.7 3.5 0.00 0.00 0.00 47 1020.4
20260902055518 77 288 0.9 3.5 0.00 0.00 0.00 47 1020.7
20260902055503 77 292 1.7 3.5 0.00 0.00 0.00 48 1020.4
20260902055403 77 294 1.7 3.5 0.00 0.00 0.00 48 1020.5
20260902055306 77 306 1.7 3.5 0.00 0.00 0.00 48 1020.4
20260902055203 77 309 1.7 3.5 0.00 0.00 0.00 48 1020.4
20260902055103 77 312 1.7 2.6 0.00 0.00 0.00 48 1020.4
20260902055016 76 265 0.9 2.6 0.00 0.00 0.00 47 1020.7
20260902055003 77 322 1.7 2.6 0.00 0.00 0.00 48 1020.4
20260902054903 77 323 1.7 2.6 0.00 0.00 0.00 48 1020.4
20260902054703 76 323 1.7 2.6 0.00 0.00 0.00 48 1020.5
20260902054603 76 323 1.7 2.6 0.00 0.00 0.00 48 1020.4
20260902054532 76 338 0.9 5.2 0.00 0.00 0.00 48 1020.7
20260902054503 76 310 1.7 2.6 0.00 0.00 0.00 49 1020.5
20260902054403 76 322 1.7 3.5 0.00 0.00 0.00 49 1020.5
20260902054303 76 310 1.7 3.5 0.00 0.00 0.00 49 1020.5
20260902054203 76 315 1.7 3.5 0.00 0.00 0.00 49 1020.5
20260902054103 76 316 1.7 3.5 0.00 0.00 0.00 49 1020.4
20260902054019 75 293 0.0 5.2 0.00 0.00 0.00 48 1020.7
20260902054003 76 311 1.7 6.1 0.00 0.00 0.00 49 1020.5
20260902053903 76 316 1.7 6.1 0.00 0.00 0.00 49 1020.4
20260902053603 76 311 1.7 6.1 0.00 0.00 0.00 49 1020.5
20260902053518 75 272 1.7 6.1 0.00 0.00 0.00 49 1020.8
20260902053503 76 313 1.7 6.1 0.00 0.00 0.00 49 1020.5
20260902053318 76 310 1.7 6.1 0.00 0.00 0.00 49 1020.5
20260902053203 76 306 1.7 6.1 0.00 0.00 0.00 49 1020.5
20260902053033 75 277 1.7 6.1 0.00 0.00 0.00 49 1020.7
20260902053003 76 310 1.7 6.1 0.00 0.00 0.00 50 1020.5
20260902052903 76 298 1.7 2.6 0.00 0.00 0.00 50 1020.5
20260902052803 75 299 1.7 2.6 0.00 0.00 0.00 50 1020.5
20260902052703 75 306 1.7 2.6 0.00 0.00 0.00 50 1020.5
20260902052603 75 304 1.7 2.6 0.00 0.00 0.00 50 1020.5
20260902052517 75 294 0.9 2.6 0.00 0.00 0.00 49 1020.7
20260902052503 75 308 1.7 2.6 0.00 0.00 0.00 50 1020.5
20260902052403 75 309 1.7 2.6 0.00 0.00 0.00 50 1020.5
20260902052306 75 309 1.7 2.6 0.00 0.00 0.00 50 1020.5
20260902052103 75 311 1.7 2.6 0.00 0.00 0.00 50 1020.5
20260902052014 75 331 0.9 2.6 0.00 0.00 0.00 50 1020.8
20260902052003 75 309 1.7 1.7 0.00 0.00 0.00 51 1020.5
20260902051903 75 312 1.7 1.7 0.00 0.00 0.00 51 1020.5
20260902051817 75 312 1.7 1.7 0.00 0.00 0.00 51 1020.4
20260902051703 75 316 1.7 1.7 0.00 0.00 0.00 51 1020.5
20260902051534 74 320 0.0 1.7 0.00 0.00 0.00 51 1020.8
20260902051503 75 283 1.7 2.6 0.00 0.00 0.00 52 1020.5
20260902051403 74 274 1.7 2.6 0.00 0.00 0.00 52 1020.5
20260902051103 74 276 1.7 2.6 0.00 0.00 0.00 52 1020.5
20260902051010 74 279 0.0 2.6 0.00 0.00 0.00 52 1020.8
20260902051003 74 263 1.7 2.6 0.00 0.00 0.00 52 1020.5
20260902050903 74 250 1.7 2.6 0.00 0.00 0.00 53 1020.5
20260902050803 74 250 1.7 2.6 0.00 0.00 0.00 53 1020.5
20260902050703 74 259 1.7 2.6 0.00 0.00 0.00 53 1020.5
20260902050603 74 262 1.7 2.6 0.00 0.00 0.00 53 1020.5
20260902050514 73 286 0.9 2.6 0.00 0.00 0.00 53 1020.7
20260902050504 73 259 1.7 2.6 0.00 0.00 0.00 53 1020.5
20260902050403 73 262 1.7 1.7 0.00 0.00 0.00 54 1020.5
20260902050303 73 255 1.7 1.7 0.00 0.00 0.00 54 1020.5
20260902050203 73 214 1.7 1.7 0.00 0.00 0.00 55 1020.5
20260902050058 73 114 0.0 1.7 0.00 0.00 0.00 54 1020.7
20260902050005 73 274 1.7 1.7 0.00 0.00 0.00 55 1020.5
20260902045903 73 285 1.7 3.5 0.00 0.00 0.00 55 1020.5
20260902045803 73 279 1.7 3.5 0.00 0.00 0.00 55 1020.5
20260902045703 72 284 1.7 3.5 0.00 0.00 0.00 55 1020.5
20260902045603 72 279 1.7 3.5 0.00 0.00 0.00 55 1020.5
20260902045514 72 256 0.0 3.5 0.00 0.00 0.00 55 1020.7
20260902045503 72 283 1.7 3.5 0.00 0.00 0.00 56 1020.5
20260902045403 72 284 1.7 3.5 0.00 0.00 0.00 56 1020.4
20260902045306 72 284 1.7 3.5 0.00 0.00 0.00 56 1020.4
20260902045203 72 284 1.7 3.5 0.00 0.00 0.00 56 1020.4
20260902045103 72 282 1.7 3.5 0.00 0.00 0.00 56 1020.4
20260902045015 71 346 0.9 3.5 0.00 0.00 0.00 56 1020.7
20260902045003 72 284 1.7 3.5 0.00 0.00 0.00 56 1020.4
20260902044903 72 282 1.7 3.5 0.00 0.00 0.00 56 1020.4
20260902044703 72 283 1.7 1.7 0.00 0.00 0.00 57 1020.4
20260902044603 71 298 1.7 1.7 0.00 0.00 0.00 57 1020.4
20260902044530 71 311 0.0 1.7 0.00 0.00 0.00 56 1020.7
20260902044403 71 271 1.7 1.7 0.00 0.00 0.00 57 1020.5
20260902044303 71 278 1.7 1.7 0.00 0.00 0.00 58 1020.4
20260902044203 71 279 1.7 2.6 0.00 0.00 0.00 58 1020.4
20260902044103 71 289 1.7 2.6 0.00 0.00 0.00 58 1020.4
20260902044018 71 302 0.0 2.6 0.00 0.00 0.00 57 1020.7
20260902044003 71 285 1.7 2.6 0.00 0.00 0.00 58 1020.4
20260902043803 71 285 1.7 2.6 0.00 0.00 0.00 58 1020.4
20260902043703 71 277 1.7 2.6 0.00 0.00 0.00 59 1020.4
20260902043516 70 257 0.0 2.6 0.00 0.00 0.00 58 1020.7
20260902043503 71 286 1.7 2.6 0.00 0.00 0.00 58 1020.4
20260902043403 71 299 1.7 2.6 0.00 0.00 0.00 59 1020.3
20260902043203 71 300 1.7 2.6 0.00 0.00 0.00 59 1020.4
20260902043103 70 277 1.7 1.7 0.00 0.00 0.00 59 1020.4
20260902043041 70 317 0.0 1.7 0.00 0.00 0.00 59 1020.6
20260902043003 70 277 1.7 1.7 0.00 0.00 0.00 59 1020.4
20260902042903 70 277 1.7 1.7 0.00 0.00 0.00 59 1020.4
20260902042803 70 277 1.7 1.7 0.00 0.00 0.00 60 1020.4
20260902042717 70 294 1.7 1.7 0.00 0.00 0.00 60 1020.3
20260902042603 70 292 1.7 1.7 0.00 0.00 0.00 60 1020.3
20260902042520 70 305 0.0 1.7 0.00 0.00 0.00 59 1020.6
20260902042403 70 286 1.7 1.7 0.00 0.00 0.00 60 1020.3
20260902042308 70 296 1.7 1.7 0.00 0.00 0.00 60 1020.3
20260902042203 70 296 1.7 1.7 0.00 0.00 0.00 60 1020.3
20260902042103 70 288 1.7 1.7 0.00 0.00 0.00 60 1020.3
20260902042021 70 288 0.0 0.9 0.00 0.00 0.00 60 1020.6
20260902042003 70 281 1.7 1.7 0.00 0.00 0.00 60 1020.3
20260902041903 70 281 1.7 1.7 0.00 0.00 0.00 60 1020.3
20260902041803 70 281 1.7 1.7 0.00 0.00 0.00 61 1020.3
20260902041703 70 281 1.7 1.7 0.00 0.00 0.00 61 1020.3
20260902041603 70 279 1.7 1.7 0.00 0.00 0.00 60 1020.4
20260902041532 70 304 0.0 1.7 0.00 0.00 0.00 60 1020.6
20260902041504 70 265 1.7 1.7 0.00 0.00 0.00 61 1020.4
20260902041403 70 265 1.7 1.7 0.00 0.00 0.00 61 1020.3
20260902041303 70 265 1.7 1.7 0.00 0.00 0.00 61 1020.4
20260902041203 70 265 1.7 1.7 0.00 0.00 0.00 61 1020.4
20260902041103 70 266 1.7 1.7 0.00 0.00 0.00 61 1020.4
20260902041014 70 265 0.0 1.7 0.00 0.00 0.00 60 1020.6
20260902041003 70 267 1.7 1.7 0.00 0.00 0.00 61 1020.3
20260902040903 70 262 1.7 1.7 0.00 0.00 0.00 61 1020.3
20260902040703 70 271 1.7 1.7 0.00 0.00 0.00 61 1020.3
20260902040603 70 277 1.7 1.7 0.00 0.00 0.00 61 1020.4
20260902040517 70 267 0.0 1.7 0.00 0.00 0.00 60 1020.6
20260902040503 70 278 1.7 1.7 0.00 0.00 0.00 61 1020.3
20260902040403 70 278 1.7 1.7 0.00 0.00 0.00 61 1020.3
20260902040303 70 275 1.7 1.7 0.00 0.00 0.00 61 1020.4
20260902040203 70 275 1.7 1.7 0.00 0.00 0.00 61 1020.4
20260902040023 70 259 0.0 1.7 0.00 0.00 0.00 60 1020.6
20260902040003 70 275 1.7 1.7 0.00 0.00 0.00 60 1020.4
20260902035903 70 277 1.7 1.7 0.00 0.00 0.00 61 1020.4
20260902035803 70 282 1.7 1.7 0.00 0.00 0.00 61 1020.3
20260902035703 70 279 1.7 1.7 0.00 0.00 0.00 61 1020.4
20260902035603 70 276 1.7 1.7 0.00 0.00 0.00 61 1020.4
20260902035513 70 271 0.0 1.7 0.00 0.00 0.00 60 1020.7
20260902035503 70 285 1.7 1.7 0.00 0.00 0.00 61 1020.4
20260902035403 70 288 1.7 1.7 0.00 0.00 0.00 61 1020.4
20260902035305 70 294 1.7 1.7 0.00 0.00 0.00 61 1020.4
20260902035203 70 294 1.7 1.7 0.00 0.00 0.00 61 1020.4
20260902035103 70 294 1.7 1.7 0.00 0.00 0.00 61 1020.4
20260902035011 70 292 0.0 1.7 0.00 0.00 0.00 60 1020.7
20260902034904 70 294 1.7 1.7 0.00 0.00 0.00 61 1020.4
20260902034803 70 294 1.7 1.7 0.00 0.00 0.00 61 1020.4
20260902034703 70 301 1.7 1.7 0.00 0.00 0.00 60 1020.4
20260902034603 70 304 1.7 1.7 0.00 0.00 0.00 61 1020.4
20260902034526 70 296 0.0 1.7 0.00 0.00 0.00 60 1020.7
20260902034503 70 297 1.7 1.7 0.00 0.00 0.00 61 1020.4
20260902034403 70 283 1.7 1.7 0.00 0.00 0.00 61 1020.4
20260902034303 70 281 1.7 1.7 0.00 0.00 0.00 61 1020.4
20260902034203 70 281 1.7 1.7 0.00 0.00 0.00 61 1020.4
20260902034103 70 281 1.7 1.7 0.00 0.00 0.00 61 1020.4
20260902034017 70 340 0.0 1.7 0.00 0.00 0.00 61 1020.6
20260902034003 70 281 1.7 1.7 0.00 0.00 0.00 61 1020.4
20260902033903 70 280 1.7 1.7 0.00 0.00 0.00 61 1020.4
20260902033803 70 280 1.7 1.7 0.00 0.00 0.00 61 1020.4
20260902033703 70 272 1.7 1.7 0.00 0.00 0.00 61 1020.4
20260902033618 70 267 1.7 1.7 0.00 0.00 0.00 61 1020.4
20260902033515 70 267 0.0 1.7 0.00 0.00 0.00 61 1020.7
20260902033503 70 269 1.7 1.7 0.00 0.00 0.00 61 1020.4
20260902033303 70 271 1.7 1.7 0.00 0.00 0.00 62 1020.3
20260902033203 71 271 1.7 1.7 0.00 0.00 0.00 62 1020.4
20260902033103 71 274 1.7 1.7 0.00 0.00 0.00 62 1020.4
20260902033032 70 271 0.0 1.7 0.00 0.00 0.00 61 1020.7
20260902033003 71 275 1.7 1.7 0.00 0.00 0.00 62 1020.4
20260902032803 71 275 1.7 1.7 0.00 0.00 0.00 62 1020.4
20260902032703 71 275 1.7 1.7 0.00 0.00 0.00 62 1020.4
20260902032603 71 276 1.7 1.7 0.00 0.00 0.00 62 1020.4
20260902032516 70 272 0.0 1.7 0.00 0.00 0.00 61 1020.7
20260902032503 71 279 1.7 1.7 0.00 0.00 0.00 62 1020.3
20260902032417 71 279 1.7 1.7 0.00 0.00 0.00 62 1020.4
20260902032305 71 279 1.7 1.7 0.00 0.00 0.00 62 1020.4
20260902032103 71 276 1.7 1.7 0.00 0.00 0.00 62 1020.4
20260902032018 70 276 0.0 1.7 0.00 0.00 0.00 62 1020.6
20260902032003 71 0 1.7 1.7 0.00 0.00 0.00 62 1020.4
20260902031803 71 0 1.7 1.7 0.00 0.00 0.00 63 1020.4
20260902031703 71 0 1.7 0.9 0.00 0.00 0.00 63 1020.3
20260902031537 70 249 0.0 0.9 0.00 0.00 0.00 62 1020.6
20260902031503 71 261 1.7 0.9 0.00 0.00 0.00 63 1020.4
20260902031403 71 255 1.7 0.9 0.00 0.00 0.00 63 1020.3
20260902031303 71 253 1.7 0.9 0.00 0.00 0.00 62 1020.3
20260902031218 71 253 1.7 0.9 0.00 0.00 0.00 62 1020.3
20260902031103 71 255 1.7 0.9 0.00 0.00 0.00 62 1020.3
20260902031020 70 272 0.0 1.7 0.00 0.00 0.00 62 1020.6
20260902030903 71 284 1.7 1.7 0.00 0.00 0.00 62 1020.3
20260902030803 71 280 1.7 1.7 0.00 0.00 0.00 62 1020.3
20260902030703 71 280 1.7 1.7 0.00 0.00 0.00 62 1020.3
20260902030603 71 280 1.7 1.7 0.00 0.00 0.00 62 1020.3
20260902030521 71 261 0.0 1.7 0.00 0.00 0.00 62 1020.6
20260902030503 71 275 1.7 1.7 0.00 0.00 0.00 62 1020.3
20260902030403 71 276 1.7 1.7 0.00 0.00 0.00 62 1020.3
20260902030303 71 282 1.7 1.7 0.00 0.00 0.00 62 1020.3
20260902030203 71 282 1.7 1.7 0.00 0.00 0.00 62 1020.3
20260902030118 71 284 1.7 1.7 0.00 0.00 0.00 62 1020.3
20260902030033 71 306 0.0 1.7 0.00 0.00 0.00 62 1020.6
20260902030003 71 284 1.7 1.7 0.00 0.00 0.00 64 1020.4
20260902025803 71 277 1.7 1.7 0.00 0.00 0.00 63 1020.3
20260902025703 71 277 1.7 1.7 0.00 0.00 0.00 63 1020.3
20260902025603 71 282 1.7 1.7 0.00 0.00 0.00 63 1020.3
20260902025519 71 261 0.0 1.7 0.00 0.00 0.00 62 1020.5
20260902025403 71 291 1.7 1.7 0.00 0.00 0.00 63 1020.3
20260902025306 71 288 1.7 1.7 0.00 0.00 0.00 63 1020.3
20260902025203 71 288 1.7 1.7 0.00 0.00 0.00 63 1020.3
20260902025103 71 288 1.7 1.7 0.00 0.00 0.00 63 1020.3
20260902025020 71 312 0.0 1.7 0.00 0.00 0.00 63 1020.6
20260902025003 71 287 1.7 1.7 0.00 0.00 0.00 64 1020.3
20260902024703 71 283 1.7 1.7 0.00 0.00 0.00 64 1020.4
20260902024603 71 279 1.7 1.7 0.00 0.00 0.00 64 1020.4
20260902024526 70 277 0.0 1.7 0.00 0.00 0.00 63 1020.6
20260902024503 71 280 1.7 1.7 0.00 0.00 0.00 64 1020.4
20260902024403 71 284 1.7 1.7 0.00 0.00 0.00 64 1020.3
20260902024218 71 284 1.7 1.7 0.00 0.00 0.00 64 1020.3
20260902024103 71 284 1.7 1.7 0.00 0.00 0.00 65 1020.3
20260902024011 71 283 0.0 1.7 0.00 0.00 0.00 64 1020.6
20260902023903 71 286 1.7 1.7 0.00 0.00 0.00 66 1020.3
20260902023803 71 0 1.7 0.0 0.00 0.00 0.00 66 1020.3
20260902023703 71 0 1.7 0.0 0.00 0.00 0.00 66 1020.3
20260902023603 71 0 1.7 0.0 0.00 0.00 0.00 65 1020.3
20260902023513 71 286 0.0 0.0 0.00 0.00 0.00 64 1020.5
20260902023503 71 0 1.7 0.0 0.00 0.00 0.00 65 1020.3
20260902023403 71 0 1.7 0.9 0.00 0.00 0.00 64 1020.3
20260902023203 71 287 1.7 0.9 0.00 0.00 0.00 65 1020.2
20260902023103 71 287 1.7 0.9 0.00 0.00 0.00 65 1020.3
20260902023033 71 286 0.0 1.7 0.00 0.00 0.00 64 1020.6
20260902023003 71 287 1.7 0.9 0.00 0.00 0.00 65 1020.3
20260902022903 71 287 1.7 0.9 0.00 0.00 0.00 65 1020.2
20260902022818 71 287 1.7 0.9 0.00 0.00 0.00 65 1020.2
20260902022703 71 287 1.7 0.9 0.00 0.00 0.00 64 1020.2
20260902022617 71 287 1.7 0.9 0.00 0.00 0.00 64 1020.2
20260902022515 71 286 0.0 1.7 0.00 0.00 0.00 63 1020.5
20260902022503 71 287 1.7 0.9 0.00 0.00 0.00 64 1020.1
20260902022306 71 288 1.7 0.9 0.00 0.00 0.00 63 1020.1
20260902022203 71 0 1.7 0.0 0.00 0.00 0.00 63 1020.1
20260902022103 71 0 1.7 0.0 0.00 0.00 0.00 64 1020.1
20260902022020 71 292 0.0 0.0 0.00 0.00 0.00 63 1020.4
20260902022017 72 0 1.7 0.0 0.00 0.00 0.00 64 1020.1
20260902021903 72 0 1.7 0.0 0.00 0.00 0.00 64 1020.1
20260902021818 71 0 1.7 0.0 0.00 0.00 0.00 64 1020.1
20260902021703 71 0 1.7 0.0 0.00 0.00 0.00 64 1020.1
20260902021617 71 0 1.7 0.0 0.00 0.00 0.00 64 1020.1
20260902021530 71 292 0.0 0.0 0.00 0.00 0.00 63 1020.4
20260902021503 72 0 1.7 0.0 0.00 0.00 0.00 64 1020.1
20260902021303 72 0 1.7 0.0 0.00 0.00 0.00 64 1020.1
20260902021203 72 0 1.7 0.0 0.00 0.00 0.00 64 1020.0
20260902021103 72 0 1.7 0.9 0.00 0.00 0.00 64 1020.0
20260902021018 71 293 0.0 1.7 0.00 0.00 0.00 63 1020.3
20260902021003 72 293 1.7 0.9 0.00 0.00 0.00 64 1020.1
20260902020903 72 294 1.7 1.7 0.00 0.00 0.00 63 1020.0
20260902020803 72 289 1.7 1.7 0.00 0.00 0.00 63 1020.1
20260902020703 72 301 1.7 1.7 0.00 0.00 0.00 63 1020.1
20260902020514 71 293 0.0 1.7 0.00 0.00 0.00 62 1020.4
20260902020503 72 285 1.7 1.7 0.00 0.00 0.00 63 1020.1
20260902020403 72 288 1.7 1.7 0.00 0.00 0.00 63 1020.1
20260902020303 72 288 1.7 2.6 0.00 0.00 0.00 63 1020.1
20260902020203 72 287 1.7 2.6 0.00 0.00 0.00 63 1020.1
20260902020033 71 293 0.9 1.7 0.00 0.00 0.00 62 1020.3
20260902015903 72 287 1.7 2.6 0.00 0.00 0.00 63 1020.1
20260902015803 72 288 1.7 2.6 0.00 0.00 0.00 62 1020.1
20260902015703 72 280 1.7 2.6 0.00 0.00 0.00 62 1020.0
20260902015603 72 280 1.7 2.6 0.00 0.00 0.00 62 1020.1
20260902015515 71 251 0.0 1.7 0.00 0.00 0.00 62 1020.4
20260902015305 72 295 1.7 2.6 0.00 0.00 0.00 62 1020.1
20260902015203 72 314 1.7 1.7 0.00 0.00 0.00 63 1020.1
20260902015103 72 310 1.7 1.7 0.00 0.00 0.00 63 1020.1
20260902015014 71 304 0.0 1.7 0.00 0.00 0.00 62 1020.4
20260902015003 72 310 1.7 1.7 0.00 0.00 0.00 63 1020.1
20260902014903 72 321 1.7 1.7 0.00 0.00 0.00 63 1020.1
20260902014803 72 324 1.7 1.7 0.00 0.00 0.00 63 1020.1
20260902014703 72 324 1.7 1.7 0.00 0.00 0.00 63 1020.1
20260902014603 72 324 1.7 1.7 0.00 0.00 0.00 62 1020.1
20260902014534 72 311 0.0 1.7 0.00 0.00 0.00 62 1020.4
20260902014503 72 324 1.7 1.7 0.00 0.00 0.00 63 1020.1
20260902014403 72 324 1.7 1.7 0.00 0.00 0.00 62 1020.1
20260902014303 72 315 1.7 1.7 0.00 0.00 0.00 62 1020.1
20260902014203 72 311 1.7 1.7 0.00 0.00 0.00 62 1020.2
20260902014103 72 306 1.7 1.7 0.00 0.00 0.00 62 1020.2
20260902014019 72 324 0.0 1.7 0.00 0.00 0.00 62 1020.5
20260902014003 72 304 1.7 1.7 0.00 0.00 0.00 62 1020.1
20260902013903 72 293 1.7 1.7 0.00 0.00 0.00 62 1020.2
20260902013703 72 297 1.7 2.6 0.00 0.00 0.00 61 1020.1
20260902013603 72 299 1.7 3.5 0.00 0.00 0.00 61 1020.2
20260902013514 72 297 0.0 2.6 0.00 0.00 0.00 61 1020.5
20260902013403 73 301 1.7 3.5 0.00 0.00 0.00 60 1020.2
20260902013303 73 304 1.7 3.5 0.00 0.00 0.00 60 1020.2
20260902013217 73 303 1.7 3.5 0.00 0.00 0.00 60 1020.2
20260902013103 73 301 1.7 3.5 0.00 0.00 0.00 60 1020.1
20260902013026 72 297 0.0 3.5 0.00 0.00 0.00 60 1020.4
20260902012903 73 305 1.7 3.5 0.00 0.00 0.00 59 1020.1
20260902012803 73 302 1.7 3.5 0.00 0.00 0.00 60 1020.1
20260902012703 73 298 1.7 3.5 0.00 0.00 0.00 59 1020.1
20260902012603 73 294 1.7 3.5 0.00 0.00 0.00 58 1020.1
20260902012513 73 320 0.9 3.5 0.00 0.00 0.00 57 1020.3
20260902012403 73 287 1.7 3.5 0.00 0.00 0.00 57 1020.1
20260902012308 73 283 1.7 2.6 0.00 0.00 0.00 56 1020.1
20260902012203 73 284 1.7 2.6 0.00 0.00 0.00 56 1020.1
20260902012104 73 287 1.7 2.6 0.00 0.00 0.00 56 1020.1
20260902012003 73 326 1.7 2.6 0.00 0.00 0.00 56 1020.4
20260902011803 73 280 1.7 2.6 0.00 0.00 0.00 56 1020.2
20260902011703 73 286 1.7 2.6 0.00 0.00 0.00 56 1020.1
20260902011603 73 291 1.7 2.6 0.00 0.00 0.00 57 1020.2
20260902011507 73 304 0.0 1.7 0.00 0.00 0.00 56 1020.5
20260902011503 73 291 1.7 2.6 0.00 0.00 0.00 56 1020.1
20260902011303 73 296 1.7 2.6 0.00 0.00 0.00 56 1020.1
20260902011203 73 295 1.7 2.6 0.00 0.00 0.00 56 1020.2
20260902011103 73 295 1.7 3.5 0.00 0.00 0.00 56 1020.2
20260902011004 73 253 0.9 3.5 0.00 0.00 0.00 56 1020.5
20260902010903 73 297 1.7 3.5 0.00 0.00 0.00 57 1020.3
20260902010803 73 290 1.7 3.5 0.00 0.00 0.00 57 1020.3
20260902010703 73 292 1.7 6.1 0.00 0.00 0.00 57 1020.2
20260902010603 73 288 1.7 6.1 0.00 0.00 0.00 57 1020.3
20260902010507 73 284 0.0 6.1 0.00 0.00 0.00 56 1020.5
20260902010503 73 288 1.7 6.1 0.00 0.00 0.00 57 1020.3
20260902010403 73 283 1.7 6.1 0.00 0.00 0.00 57 1020.3
20260902010303 73 282 1.7 6.1 0.00 0.00 0.00 57 1020.3
20260902010203 73 281 1.7 6.1 0.00 0.00 0.00 57 1020.3
20260902010024 73 304 1.7 6.1 0.00 0.00 0.00 56 1020.6
20260902010003 73 274 1.7 6.1 0.00 0.00 0.00 57 1020.3
20260902005904 73 275 1.7 6.1 0.00 0.00 0.00 57 1020.3
20260902005803 73 273 1.7 6.1 0.00 0.00 0.00 57 1020.3
20260902005703 73 276 1.7 6.1 0.00 0.00 0.00 57 1020.4
20260902005603 73 277 1.7 5.2 0.00 0.00 0.00 57 1020.3
20260902005511 73 284 1.7 4.3 0.00 0.00 0.00 57 1020.6
20260902005403 73 291 1.7 5.2 0.00 0.00 0.00 57 1020.3
20260902005305 73 295 1.7 4.3 0.00 0.00 0.00 58 1020.4
20260902005203 73 293 1.7 4.3 0.00 0.00 0.00 58 1020.4
20260902005118 73 293 1.7 4.3 0.00 0.00 0.00 58 1020.3
20260902005009 73 273 1.7 6.1 0.00 0.00 0.00 58 1020.6
20260902005003 73 296 1.7 4.3 0.00 0.00 0.00 58 1020.3
20260902004803 73 303 1.7 6.1 0.00 0.00 0.00 58 1020.3
20260902004703 73 295 1.7 6.1 0.00 0.00 0.00 58 1020.2
20260902004603 73 300 1.7 6.1 0.00 0.00 0.00 58 1020.3
20260902004524 73 311 1.7 6.1 0.00 0.00 0.00 58 1020.5
20260902004303 73 301 1.7 6.1 0.00 0.00 0.00 59 1020.3
20260902004203 73 301 1.7 6.1 0.00 0.00 0.00 59 1020.3
20260902004103 73 302 1.7 6.1 0.00 0.00 0.00 59 1020.3
20260902004012 73 298 0.9 6.1 0.00 0.00 0.00 59 1020.5
20260902004003 73 304 1.7 6.1 0.00 0.00 0.00 60 1020.2
20260902003803 73 303 1.7 5.2 0.00 0.00 0.00 60 1020.3
20260902003703 73 308 1.7 5.2 0.00 0.00 0.00 60 1020.3
20260902003603 73 300 1.7 5.2 0.00 0.00 0.00 60 1020.3
20260902003510 73 292 1.7 4.3 0.00 0.00 0.00 59 1020.5
20260902003403 73 296 1.7 5.2 0.00 0.00 0.00 60 1020.2
20260902003303 73 278 1.7 2.6 0.00 0.00 0.00 60 1020.2
20260902003030 72 340 0.9 1.7 0.00 0.00 0.00 60 1020.5
20260902003003 73 279 1.7 3.5 0.00 0.00 0.00 61 1020.1
20260902002903 73 281 1.7 3.5 0.00 0.00 0.00 61 1020.2
20260902002803 73 278 1.7 3.5 0.00 0.00 0.00 61 1020.1
20260902002703 73 282 1.7 3.5 0.00 0.00 0.00 61 1020.1
20260902002603 73 286 1.7 3.5 0.00 0.00 0.00 61 1020.1
20260902002511 72 317 0.0 3.5 0.00 0.00 0.00 60 1020.4
20260902002503 73 286 1.7 3.5 0.00 0.00 0.00 61 1020.1
20260902002403 73 300 1.7 3.5 0.00 0.00 0.00 61 1020.1
20260902002306 73 307 1.7 3.5 0.00 0.00 0.00 61 1020.1
20260902002203 73 303 1.7 3.5 0.00 0.00 0.00 61 1020.0
20260902002103 73 296 1.7 3.5 0.00 0.00 0.00 61 1020.0
20260902002011 72 278 0.9 3.5 0.00 0.00 0.00 61 1020.3
20260902002003 73 297 1.7 3.5 0.00 0.00 0.00 61 1020.0
20260902001903 73 294 1.7 3.5 0.00 0.00 0.00 61 1020.0
20260902001703 73 299 1.7 3.5 0.00 0.00 0.00 61 1020.0
20260902001603 73 295 1.7 5.2 0.00 0.00 0.00 61 1019.9
20260902001529 72 312 0.0 3.5 0.00 0.00 0.00 61 1020.2
20260902001503 73 290 1.7 5.2 0.00 0.00 0.00 61 1020.0
20260902001403 73 288 1.7 5.2 0.00 0.00 0.00 61 1020.0
20260902001303 73 286 1.7 5.2 0.00 0.00 0.00 61 1019.9
20260902001203 73 289 1.7 5.2 0.00 0.00 0.00 61 1020.0
20260902001103 73 294 1.7 5.2 0.00 0.00 0.00 62 1019.9
20260902001005 72 287 0.9 5.2 0.00 0.00 0.00 61 1020.2
20260902001003 73 296 1.7 5.2 0.00 0.00 0.00 62 1020.0
20260902000903 73 299 1.7 5.2 0.00 0.00 0.00 62 1020.0
20260902000803 73 299 1.7 5.2 0.00 0.00 0.00 62 1020.0
20260902000718 73 294 1.7 5.2 0.00 0.00 0.00 62 1019.9
20260902000603 73 298 1.7 5.2 0.00 0.00 0.00 62 1020.0
20260902000507 72 269 1.7 5.2 0.00 0.00 0.00 61 1020.2
20260902000403 73 305 1.7 2.6 0.00 0.00 0.00 62 1019.9
20260902000304 73 305 1.7 2.6 0.00 0.00 0.00 62 1019.9
20260902000204 73 301 1.7 2.6 0.00 0.00 0.00 62 1019.9
20260902000013 72 329 0.9 1.7 0.00 0.00 0.00 61 1020.1
20260902000003 73 295 1.7 2.6 0.00 0.00 0.00 62 1019.8
20260901235903 73 294 1.7 2.6 0.00 0.00 0.00 62 1019.7
20260901235803 73 293 1.7 2.6 0.00 0.00 0.00 62 1019.6
20260901235603 73 294 1.7 1.7 0.00 0.00 0.00 62 1019.7
20260901235505 72 312 0.9 1.7 0.00 0.00 0.00 61 1020.0
20260901235503 73 290 1.7 1.7 0.00 0.00 0.00 62 1019.7
20260901235403 73 289 1.7 1.7 0.00 0.00 0.00 62 1019.6
20260901235307 73 288 1.7 1.7 0.00 0.00 0.00 62 1019.7
20260901235203 73 288 1.7 1.7 0.00 0.00 0.00 62 1019.7
20260901235103 73 299 1.7 1.7 0.00 0.00 0.00 62 1019.7
20260901235006 72 280 0.0 1.7 0.00 0.00 0.00 61 1020.0
20260901235003 73 304 1.7 1.7 0.00 0.00 0.00 62 1019.8
20260901234903 73 300 1.7 1.7 0.00 0.00 0.00 62 1019.8
20260901234803 73 298 1.7 2.6 0.00 0.00 0.00 62 1019.8
20260901234603 73 289 1.7 2.6 0.00 0.00 0.00 62 1019.8
20260901234515 72 284 0.0 2.6 0.00 0.00 0.00 61 1020.1
20260901234503 73 289 1.7 2.6 0.00 0.00 0.00 62 1019.8
20260901234403 73 290 1.7 2.6 0.00 0.00 0.00 62 1019.8
20260901234303 73 291 1.7 2.6 0.00 0.00 0.00 62 1019.7
20260901234203 73 294 1.7 2.6 0.00 0.00 0.00 62 1019.7
20260901234103 73 287 1.7 2.6 0.00 0.00 0.00 62 1019.8
20260901234011 72 300 0.9 2.6 0.00 0.00 0.00 61 1020.0
20260901234003 73 286 1.7 2.6 0.00 0.00 0.00 61 1019.7
20260901233903 73 286 1.7 2.6 0.00 0.00 0.00 61 1019.8
20260901233803 73 287 1.7 2.6 0.00 0.00 0.00 61 1019.7
20260901233603 73 289 1.7 1.7 0.00 0.00 0.00 61 1019.7
20260901233513 72 296 0.0 1.7 0.00 0.00 0.00 61 1020.0
20260901233503 73 288 1.7 1.7 0.00 0.00 0.00 62 1019.7
20260901233403 73 287 1.7 1.7 0.00 0.00 0.00 62 1019.7
20260901233303 72 286 1.7 1.7 0.00 0.00 0.00 62 1019.7
20260901233203 72 279 1.7 1.7 0.00 0.00 0.00 62 1019.8
20260901233103 72 279 1.7 1.7 0.00 0.00 0.00 62 1019.8
20260901233026 72 286 0.9 1.7 0.00 0.00 0.00 61 1020.0
20260901233003 72 277 1.7 1.7 0.00 0.00 0.00 62 1019.8
20260901232903 72 275 1.7 1.7 0.00 0.00 0.00 62 1019.7
20260901232603 72 0 1.7 0.0 0.00 0.00 0.00 62 1019.7
20260901232510 72 240 0.0 0.0 0.00 0.00 0.00 62 1020.0
20260901232503 72 0 1.7 0.0 0.00 0.00 0.00 62 1019.7
20260901232403 72 0 1.7 0.0 0.00 0.00 0.00 62 1019.7
20260901232306 72 0 1.7 0.0 0.00 0.00 0.00 62 1019.6
20260901232103 72 0 1.7 0.0 0.00 0.00 0.00 62 1019.6
20260901232015 72 240 0.0 0.0 0.00 0.00 0.00 61 1019.9
20260901232003 72 0 1.7 0.9 0.00 0.00 0.00 62 1019.6
20260901231803 72 257 1.7 0.9 0.00 0.00 0.00 62 1019.6
20260901231703 72 257 1.7 1.7 0.00 0.00 0.00 62 1019.6
20260901231604 72 253 1.7 1.7 0.00 0.00 0.00 62 1019.7
20260901231536 72 240 0.0 1.7 0.00 0.00 0.00 62 1020.0
20260901231503 72 253 1.7 1.7 0.00 0.00 0.00 62 1019.6
20260901231403 72 253 1.7 1.7 0.00 0.00 0.00 62 1019.7
20260901231303 72 253 1.7 1.7 0.00 0.00 0.00 62 1019.7
20260901231103 72 253 1.7 1.7 0.00 0.00 0.00 63 1019.8
20260901231018 72 257 0.0 1.7 0.00 0.00 0.00 62 1020.0
20260901231003 72 253 1.7 1.7 0.00 0.00 0.00 62 1019.7
20260901230903 72 251 1.7 1.7 0.00 0.00 0.00 62 1019.8
20260901230803 72 251 1.7 1.7 0.00 0.00 0.00 63 1019.8
20260901230703 72 251 1.7 1.7 0.00 0.00 0.00 63 1019.8
20260901230603 72 0 1.7 1.7 0.00 0.00 0.00 63 1019.8
20260901230513 72 245 0.0 1.7 0.00 0.00 0.00 62 1020.1
20260901230503 72 0 1.7 1.7 0.00 0.00 0.00 63 1019.8
20260901230403 72 0 1.7 1.7 0.00 0.00 0.00 63 1019.8
20260901230303 72 0 1.7 1.7 0.00 0.00 0.00 63 1019.8
20260901230203 72 0 1.7 1.7 0.00 0.00 0.00 63 1019.8
20260901230011 71 243 0.0 1.7 0.00 0.00 0.00 63 1020.1
20260901225903 72 267 1.7 1.7 0.00 0.00 0.00 63 1019.8
20260901225803 72 267 1.7 1.7 0.00 0.00 0.00 63 1019.8
20260901225703 72 267 1.7 1.7 0.00 0.00 0.00 63 1019.8
20260901225603 72 267 1.7 1.7 0.00 0.00 0.00 63 1019.9
20260901225503 71 269 0.0 1.7 0.00 0.00 0.00 63 1020.1
20260901225403 72 267 1.7 1.7 0.00 0.00 0.00 64 1019.9
20260901225306 72 267 1.7 1.7 0.00 0.00 0.00 63 1019.9
20260901225203 72 267 1.7 1.7 0.00 0.00 0.00 63 1019.9
20260901225005 71 267 0.0 0.0 0.00 0.00 0.00 63 1020.1
20260901225003 72 0 1.7 0.0 0.00 0.00 0.00 64 1019.9
20260901224903 72 0 1.7 0.0 0.00 0.00 0.00 64 1019.8
20260901224603 71 0 1.7 0.0 0.00 0.00 0.00 64 1019.8
20260901224524 71 267 0.0 0.0 0.00 0.00 0.00 63 1020.0
20260901224503 71 0 1.7 0.0 0.00 0.00 0.00 64 1019.7
20260901224303 71 0 1.7 0.0 0.00 0.00 0.00 64 1019.8
20260901224203 71 0 1.7 0.0 0.00 0.00 0.00 64 1019.8
20260901224103 71 0 1.7 0.0 0.00 0.00 0.00 64 1019.7
20260901224008 71 267 0.0 0.0 0.00 0.00 0.00 63 1020.0
20260901224003 71 0 1.7 0.0 0.00 0.00 0.00 64 1019.7
20260901223903 71 0 1.7 0.0 0.00 0.00 0.00 64 1019.8
20260901223803 71 0 1.7 0.0 0.00 0.00 0.00 64 1019.8
20260901223703 71 0 1.7 0.0 0.00 0.00 0.00 64 1019.7
20260901223603 71 0 1.7 0.0 0.00 0.00 0.00 63 1019.7
20260901223506 71 267 0.0 0.0 0.00 0.00 0.00 63 1020.0
20260901223503 72 0 1.7 0.0 0.00 0.00 0.00 63 1019.7
20260901223403 72 0 1.7 0.0 0.00 0.00 0.00 64 1019.6
20260901223206 72 0 1.7 1.7 0.00 0.00 0.00 64 1019.6
20260901223103 72 0 1.7 1.7 0.00 0.00 0.00 64 1019.6
20260901223020 71 267 0.0 1.7 0.00 0.00 0.00 64 1019.9
20260901223004 72 0 1.7 1.7 0.00 0.00 0.00 64 1019.6
20260901222903 72 0 1.7 1.7 0.00 0.00 0.00 64 1019.6
20260901222803 72 0 1.7 1.7 0.00 0.00 0.00 64 1019.6
20260901222703 72 0 1.7 1.7 0.00 0.00 0.00 64 1019.6
20260901222603 72 0 1.7 1.7 0.00 0.00 0.00 64 1019.6
20260901222513 71 267 0.0 1.7 0.00 0.00 0.00 63 1019.9
20260901222403 72 0 1.7 1.7 0.00 0.00 0.00 64 1019.6
20260901222306 72 0 1.7 1.7 0.00 0.00 0.00 64 1019.6
20260901222203 72 0 1.7 0.0 0.00 0.00 0.00 64 1019.6
20260901222103 72 0 1.7 0.0 0.00 0.00 0.00 64 1019.6
20260901222011 71 182 0.0 0.0 0.00 0.00 0.00 63 1019.9
20260901222003 72 0 1.7 0.0 0.00 0.00 0.00 64 1019.5
20260901221903 72 0 1.7 0.0 0.00 0.00 0.00 64 1019.5
20260901221803 72 0 1.7 0.0 0.00 0.00 0.00 63 1019.6
20260901221603 72 0 1.7 0.0 0.00 0.00 0.00 63 1019.6
20260901221558 71 182 0.0 0.0 0.00 0.00 0.00 63 1019.9
20260901221503 72 0 1.7 0.0 0.00 0.00 0.00 63 1019.5
20260901221403 72 0 1.7 0.0 0.00 0.00 0.00 63 1019.5
20260901221303 72 0 1.7 0.0 0.00 0.00 0.00 63 1019.5
20260901221103 72 0 1.7 0.0 0.00 0.00 0.00 63 1019.6
20260901221015 72 182 0.0 0.0 0.00 0.00 0.00 62 1019.9
20260901221003 72 0 1.7 0.0 0.00 0.00 0.00 63 1019.6
20260901220903 72 0 1.7 0.0 0.00 0.00 0.00 63 1019.6
20260901220803 72 0 1.7 0.0 0.00 0.00 0.00 63 1019.6
20260901220703 72 0 1.7 0.0 0.00 0.00 0.00 63 1019.6
20260901220603 72 0 1.7 0.0 0.00 0.00 0.00 63 1019.6
20260901220516 72 182 0.0 0.0 0.00 0.00 0.00 62 1019.9
20260901220503 72 0 1.7 0.0 0.00 0.00 0.00 63 1019.6
20260901220203 72 0 1.7 0.0 0.00 0.00 0.00 62 1019.6
20260901220038 72 182 0.0 0.0 0.00 0.00 0.00 62 1019.9
20260901220003 72 0 1.7 0.0 0.00 0.00 0.00 62 1019.7
20260901215903 72 0 1.7 0.0 0.00 0.00 0.00 62 1019.7
20260901215803 73 0 1.7 0.0 0.00 0.00 0.00 62 1019.6
20260901215603 73 198 1.7 0.9 0.00 0.00 0.00 62 1019.6
20260901215515 72 182 0.0 0.9 0.00 0.00 0.00 61 1019.9
20260901215503 73 198 1.7 0.9 0.00 0.00 0.00 61 1019.7
20260901215306 73 198 1.7 0.9 0.00 0.00 0.00 61 1019.6
20260901215203 73 198 1.7 0.9 0.00 0.00 0.00 61 1019.6
20260901215103 73 198 1.7 0.9 0.00 0.00 0.00 61 1019.6
20260901215005 73 182 0.0 0.9 0.00 0.00 0.00 60 1019.9
20260901215003 73 198 1.7 0.9 0.00 0.00 0.00 61 1019.6
20260901214903 73 198 1.7 0.9 0.00 0.00 0.00 61 1019.6
20260901214603 73 0 1.7 0.0 0.00 0.00 0.00 61 1019.6
20260901214515 73 296 0.0 0.9 0.00 0.00 0.00 60 1019.9
20260901214503 73 296 1.7 0.9 0.00 0.00 0.00 61 1019.6
20260901214403 73 296 1.7 1.7 0.00 0.00 0.00 61 1019.6
20260901214303 73 298 1.7 1.7 0.00 0.00 0.00 61 1019.6
20260901214203 73 294 1.7 1.7 0.00 0.00 0.00 61 1019.6
20260901214103 73 293 1.7 1.7 0.00 0.00 0.00 61 1019.6
20260901214006 73 296 0.0 1.7 0.00 0.00 0.00 60 1019.9
20260901214003 73 289 1.7 1.7 0.00 0.00 0.00 61 1019.6
20260901213803 73 285 1.7 1.7 0.00 0.00 0.00 61 1019.6
20260901213703 73 285 1.7 1.7 0.00 0.00 0.00 61 1019.6
20260901213603 73 285 1.7 1.7 0.00 0.00 0.00 61 1019.6
20260901213509 73 296 0.9 1.7 0.00 0.00 0.00 60 1019.9
20260901213503 73 285 1.7 1.7 0.00 0.00 0.00 61 1019.6
20260901213403 73 282 1.7 1.7 0.00 0.00 0.00 61 1019.6
20260901213303 73 272 1.7 1.7 0.00 0.00 0.00 62 1019.6
20260901213203 73 266 1.7 1.7 0.00 0.00 0.00 61 1019.6
20260901213024 73 265 0.0 1.7 0.00 0.00 0.00 61 1019.9
20260901213003 73 256 1.7 1.7 0.00 0.00 0.00 61 1019.6
20260901212903 73 0 1.7 0.0 0.00 0.00 0.00 61 1019.5
20260901212703 73 0 1.7 0.0 0.00 0.00 0.00 61 1019.5
20260901212603 73 0 1.7 0.0 0.00 0.00 0.00 61 1019.5
20260901212511 73 159 0.0 0.0 0.00 0.00 0.00 61 1019.8
20260901212403 73 0 1.7 0.0 0.00 0.00 0.00 61 1019.5
20260901212306 74 0 1.7 0.0 0.00 0.00 0.00 61 1019.5
20260901212203 74 0 1.7 0.0 0.00 0.00 0.00 61 1019.5
20260901212103 74 0 1.7 0.0 0.00 0.00 0.00 61 1019.5
20260901212014 73 159 0.0 0.0 0.00 0.00 0.00 61 1019.8
20260901212003 74 0 1.7 0.0 0.00 0.00 0.00 60 1019.5
20260901211803 74 0 1.7 0.0 0.00 0.00 0.00 61 1019.5
20260901211703 74 0 1.7 0.0 0.00 0.00 0.00 61 1019.5
20260901211603 74 0 1.7 0.0 0.00 0.00 0.00 60 1019.5
20260901211525 73 159 0.0 0.0 0.00 0.00 0.00 60 1019.8
20260901211503 74 0 1.7 0.0 0.00 0.00 0.00 60 1019.5
20260901211403 74 0 1.7 0.0 0.00 0.00 0.00 60 1019.5
20260901211303 74 0 1.7 0.0 0.00 0.00 0.00 60 1019.5
20260901211218 74 0 1.7 0.0 0.00 0.00 0.00 60 1019.5
20260901211103 74 0 1.7 0.0 0.00 0.00 0.00 60 1019.5
20260901211015 73 159 0.0 0.0 0.00 0.00 0.00 59 1019.7
20260901210917 74 0 1.7 1.7 0.00 0.00 0.00 60 1019.4
20260901210803 74 157 1.7 1.7 0.00 0.00 0.00 60 1019.4
20260901210603 74 157 1.7 1.7 0.00 0.00 0.00 60 1019.5
20260901210514 73 159 0.0 1.7 0.00 0.00 0.00 59 1019.7
20260901210503 74 157 1.7 1.7 0.00 0.00 0.00 60 1019.4
20260901210403 74 157 1.7 1.7 0.00 0.00 0.00 60 1019.4
20260901210303 74 157 1.7 1.7 0.00 0.00 0.00 59 1019.4
20260901210203 74 157 1.7 1.7 0.00 0.00 0.00 60 1019.4
20260901210003 74 157 1.7 1.7 0.00 0.00 0.00 60 1019.4
20260901205903 74 157 1.7 1.7 0.00 0.00 0.00 60 1019.4
20260901205703 74 0 1.7 0.0 0.00 0.00 0.00 60 1019.4
20260901205603 74 0 1.7 0.0 0.00 0.00 0.00 60 1019.4
20260901205517 73 157 0.0 0.0 0.00 0.00 0.00 59 1019.7
20260901205403 74 0 1.7 0.0 0.00 0.00 0.00 60 1019.5
20260901205306 74 0 1.7 0.0 0.00 0.00 0.00 60 1019.5
20260901205203 74 0 1.7 0.0 0.00 0.00 0.00 60 1019.4
20260901205103 74 0 1.7 0.0 0.00 0.00 0.00 59 1019.4
20260901205019 73 157 0.0 0.0 0.00 0.00 0.00 59 1019.6
20260901205003 74 0 1.7 0.0 0.00 0.00 0.00 59 1019.4
20260901204903 74 0 1.7 0.0 0.00 0.00 0.00 59 1019.4
20260901204803 74 0 1.7 0.0 0.00 0.00 0.00 60 1019.4
20260901204703 74 0 1.7 0.0 0.00 0.00 0.00 60 1019.4
20260901204603 74 0 1.7 0.0 0.00 0.00 0.00 59 1019.4
20260901204531 74 157 0.0 0.0 0.00 0.00 0.00 59 1019.7
20260901204503 74 0 1.7 0.0 0.00 0.00 0.00 60 1019.4
20260901204403 74 0 1.7 0.0 0.00 0.00 0.00 60 1019.4
20260901204303 74 0 1.7 0.0 0.00 0.00 0.00 60 1019.4
20260901204203 74 0 1.7 0.0 0.00 0.00 0.00 60 1019.4
20260901204118 74 0 1.7 0.0 0.00 0.00 0.00 60 1019.4
20260901204004 74 157 0.0 0.0 0.00 0.00 0.00 59 1019.7
20260901203803 74 0 1.7 0.0 0.00 0.00 0.00 59 1019.4
20260901203703 74 0 1.7 0.0 0.00 0.00 0.00 58 1019.4
20260901203603 74 0 1.7 0.0 0.00 0.00 0.00 59 1019.3
20260901203508 74 157 0.0 0.0 0.00 0.00 0.00 58 1019.6
20260901203503 74 0 1.7 0.0 0.00 0.00 0.00 58 1019.4
20260901203403 74 0 1.7 0.0 0.00 0.00 0.00 58 1019.4
20260901203303 74 0 1.7 0.0 0.00 0.00 0.00 58 1019.4
20260901203203 74 0 1.7 0.0 0.00 0.00 0.00 58 1019.4
20260901203103 74 0 1.7 0.0 0.00 0.00 0.00 58 1019.4
20260901203016 74 157 0.0 0.0 0.00 0.00 0.00 58 1019.7
20260901202903 74 0 1.7 0.0 0.00 0.00 0.00 58 1019.4
20260901202803 74 0 1.7 0.0 0.00 0.00 0.00 58 1019.4
20260901202703 74 0 1.7 0.0 0.00 0.00 0.00 58 1019.4
20260901202603 74 0 1.7 0.0 0.00 0.00 0.00 58 1019.4
20260901202507 74 157 0.0 0.0 0.00 0.00 0.00 58 1019.7
20260901202503 74 0 1.7 0.0 0.00 0.00 0.00 58 1019.4
20260901202403 74 0 1.7 0.0 0.00 0.00 0.00 58 1019.4
20260901202306 74 0 1.7 0.0 0.00 0.00 0.00 58 1019.4
20260901202203 74 0 1.7 0.0 0.00 0.00 0.00 58 1019.4
20260901202103 74 0 1.7 0.0 0.00 0.00 0.00 58 1019.4
20260901202010 74 157 0.0 0.0 0.00 0.00 0.00 58 1019.7
20260901202003 74 0 1.7 0.0 0.00 0.00 0.00 58 1019.4
20260901201803 74 0 1.7 0.0 0.00 0.00 0.00 58 1019.5
20260901201703 74 0 1.7 0.0 0.00 0.00 0.00 58 1019.4
20260901201603 74 0 1.7 0.0 0.00 0.00 0.00 58 1019.4
20260901201524 74 154 0.0 0.9 0.00 0.00 0.00 58 1019.7
20260901201503 74 0 1.7 1.7 0.00 0.00 0.00 58 1019.4
20260901201403 74 154 1.7 1.7 0.00 0.00 0.00 58 1019.4
20260901201303 74 154 1.7 1.7 0.00 0.00 0.00 58 1019.4
20260901201203 74 154 1.7 1.7 0.00 0.00 0.00 58 1019.4
20260901201013 74 154 0.0 0.9 0.00 0.00 0.00 58 1019.6
20260901201003 75 154 1.7 1.7 0.00 0.00 0.00 58 1019.4
20260901200903 75 154 1.7 1.7 0.00 0.00 0.00 58 1019.4
20260901200803 75 154 1.7 1.7 0.00 0.00 0.00 58 1019.4
20260901200703 75 154 1.7 1.7 0.00 0.00 0.00 58 1019.4
20260901200603 75 154 1.7 1.7 0.00 0.00 0.00 58 1019.3
20260901200511 74 154 0.0 0.9 0.00 0.00 0.00 58 1019.6
20260901200403 75 0 1.7 0.9 0.00 0.00 0.00 58 1019.3
20260901200303 75 0 1.7 0.9 0.00 0.00 0.00 58 1019.3
20260901200203 75 0 1.7 0.9 0.00 0.00 0.00 58 1019.3
20260901200103 75 0 1.7 0.0 0.00 0.00 0.00 59 1019.3
20260901200035 75 301 0.0 0.0 0.00 0.00 0.00 58 1019.6
20260901200003 75 0 1.7 0.0 0.00 0.00 0.00 59 1019.3
20260901195903 75 0 1.7 0.0 0.00 0.00 0.00 59 1019.3
20260901195803 75 0 1.7 0.0 0.00 0.00 0.00 59 1019.3
20260901195703 75 0 1.7 0.0 0.00 0.00 0.00 58 1019.3
20260901195603 75 0 1.7 0.0 0.00 0.00 0.00 58 1019.3
20260901195514 75 301 0.0 0.0 0.00 0.00 0.00 58 1019.6
20260901195503 75 0 1.7 0.0 0.00 0.00 0.00 58 1019.3
20260901195403 75 0 1.7 0.0 0.00 0.00 0.00 57 1019.3
20260901195305 75 0 1.7 0.0 0.00 0.00 0.00 57 1019.3
20260901195203 75 0 1.7 1.7 0.00 0.00 0.00 57 1019.3
20260901195103 76 0 1.7 1.7 0.00 0.00 0.00 57 1019.4
20260901195014 75 301 0.0 0.9 0.00 0.00 0.00 57 1019.6
20260901195003 76 0 1.7 1.7 0.00 0.00 0.00 57 1019.3
20260901194903 76 301 1.7 1.7 0.00 0.00 0.00 57 1019.3
20260901194803 76 301 1.7 1.7 0.00 0.00 0.00 57 1019.3
20260901194703 76 301 1.7 1.7 0.00 0.00 0.00 57 1019.3
20260901194603 76 301 1.7 1.7 0.00 0.00 0.00 57 1019.3
20260901194531 75 301 0.0 0.9 0.00 0.00 0.00 57 1019.5
20260901194504 76 301 1.7 1.7 0.00 0.00 0.00 57 1019.3
20260901194403 76 301 1.7 1.7 0.00 0.00 0.00 57 1019.3
20260901194303 76 301 1.7 1.7 0.00 0.00 0.00 57 1019.3
20260901194203 76 301 1.7 1.7 0.00 0.00 0.00 57 1019.3
20260901194016 76 301 0.0 0.9 0.00 0.00 0.00 56 1019.6
20260901194003 76 301 1.7 0.9 0.00 0.00 0.00 56 1019.3
20260901193903 76 301 1.7 0.9 0.00 0.00 0.00 56 1019.3
20260901193803 76 301 1.7 0.9 0.00 0.00 0.00 56 1019.3
20260901193703 77 0 1.7 0.0 0.00 0.00 0.00 56 1019.3
20260901193518 76 301 0.0 0.0 0.00 0.00 0.00 56 1019.5
20260901193503 77 0 1.7 0.0 0.00 0.00 0.00 56 1019.3
20260901193403 77 0 1.7 0.0 0.00 0.00 0.00 56 1019.3
20260901193303 77 0 1.7 0.0 0.00 0.00 0.00 56 1019.3
20260901193203 77 0 1.7 0.0 0.00 0.00 0.00 55 1019.3
20260901193103 77 0 1.7 0.0 0.00 0.00 0.00 55 1019.3
20260901193012 77 301 0.0 0.0 0.00 0.00 0.00 55 1019.6
20260901193003 77 0 1.7 0.0 0.00 0.00 0.00 55 1019.4
20260901192803 78 0 1.7 0.0 0.00 0.00 0.00 55 1019.3
20260901192703 78 0 1.7 0.0 0.00 0.00 0.00 55 1019.3
20260901192603 78 0 1.7 0.0 0.00 0.00 0.00 55 1019.4
20260901192508 77 301 0.0 0.0 0.00 0.00 0.00 54 1019.7
20260901192503 78 0 1.7 0.0 0.00 0.00 0.00 55 1019.4
20260901192418 78 0 1.7 0.0 0.00 0.00 0.00 54 1019.4
20260901192306 78 0 1.7 0.0 0.00 0.00 0.00 55 1019.4
20260901192103 78 0 1.7 0.0 0.00 0.00 0.00 54 1019.3
20260901192009 78 301 0.0 0.0 0.00 0.00 0.00 54 1019.6
20260901192003 78 0 1.7 0.0 0.00 0.00 0.00 54 1019.3
20260901191903 78 0 1.7 0.0 0.00 0.00 0.00 54 1019.3
20260901191803 78 0 1.7 0.0 0.00 0.00 0.00 54 1019.2
20260901191703 78 0 1.7 0.0 0.00 0.00 0.00 53 1019.2
20260901191603 78 0 1.7 0.0 0.00 0.00 0.00 53 1019.2
20260901191529 78 301 0.0 0.0 0.00 0.00 0.00 53 1019.5
20260901191503 78 0 1.7 0.0 0.00 0.00 0.00 53 1019.1
20260901191403 78 0 1.7 0.0 0.00 0.00 0.00 53 1019.2
20260901191303 79 0 1.7 0.0 0.00 0.00 0.00 53 1019.3
20260901191203 79 0 1.7 0.0 0.00 0.00 0.00 53 1019.2
20260901191103 79 0 1.7 0.0 0.00 0.00 0.00 53 1019.3
20260901191011 78 301 0.0 0.0 0.00 0.00 0.00 52 1019.5
20260901191003 79 0 1.7 0.0 0.00 0.00 0.00 52 1019.3
20260901190903 79 0 1.7 0.0 0.00 0.00 0.00 52 1019.3
20260901190803 79 0 1.7 0.0 0.00 0.00 0.00 52 1019.2
20260901190703 79 0 1.7 0.0 0.00 0.00 0.00 52 1019.3
20260901190515 79 301 0.0 0.0 0.00 0.00 0.00 51 1019.5
20260901190503 79 0 1.7 0.0 0.00 0.00 0.00 52 1019.3
20260901190403 79 0 1.7 0.0 0.00 0.00 0.00 52 1019.2
20260901190303 79 0 1.7 0.0 0.00 0.00 0.00 51 1019.3
20260901190203 79 0 1.7 0.0 0.00 0.00 0.00 51 1019.3
20260901190103 79 0 1.7 0.0 0.00 0.00 0.00 52 1019.3
20260901190027 79 301 0.0 0.0 0.00 0.00 0.00 51 1019.6
20260901190003 79 0 1.7 0.0 0.00 0.00 0.00 51 1019.2
20260901185903 80 0 1.7 0.0 0.00 0.00 0.00 50 1019.3
20260901185703 80 0 1.7 0.9 0.00 0.00 0.00 50 1019.3
20260901185603 80 301 1.7 0.9 0.00 0.00 0.00 50 1019.3
20260901185511 79 301 0.0 0.9 0.00 0.00 0.00 50 1019.5
20260901185503 80 301 1.7 0.9 0.00 0.00 0.00 50 1019.3
20260901185403 80 301 1.7 0.9 0.00 0.00 0.00 50 1019.2
20260901185306 80 301 1.7 0.9 0.00 0.00 0.00 50 1019.2
20260901185203 80 301 1.7 0.9 0.00 0.00 0.00 50 1019.3
20260901185103 80 301 1.7 1.7 0.00 0.00 0.00 49 1019.2
20260901185014 79 301 0.0 1.7 0.00 0.00 0.00 49 1019.5
20260901185003 80 306 1.7 1.7 0.00 0.00 0.00 49 1019.3
20260901184903 80 308 1.7 1.7 0.00 0.00 0.00 50 1019.2
20260901184803 80 308 1.7 1.7 0.00 0.00 0.00 50 1019.2
20260901184703 80 308 1.7 1.7 0.00 0.00 0.00 49 1019.1
20260901184618 80 310 1.7 1.7 0.00 0.00 0.00 48 1019.1
20260901184508 80 300 0.0 1.7 0.00 0.00 0.00 48 1019.4
20260901184503 80 310 1.7 1.7 0.00 0.00 0.00 49 1019.1
20260901184303 80 313 1.7 1.7 0.00 0.00 0.00 49 1019.1
20260901184203 80 313 1.7 1.7 0.00 0.00 0.00 48 1019.1
20260901184103 80 313 1.7 1.7 0.00 0.00 0.00 48 1019.1
20260901184004 80 313 0.0 1.7 0.00 0.00 0.00 48 1019.4
20260901183903 80 0 1.7 0.9 0.00 0.00 0.00 50 1019.1
20260901183803 80 0 1.7 0.9 0.00 0.00 0.00 50 1019.0
20260901183718 80 0 1.7 0.9 0.00 0.00 0.00 49 1019.0
20260901183506 80 318 0.0 0.9 0.00 0.00 0.00 48 1019.4
20260901183403 80 0 1.7 0.9 0.00 0.00 0.00 48 1019.0
20260901183303 80 0 1.7 0.0 0.00 0.00 0.00 48 1019.0
20260901183203 80 0 1.7 0.0 0.00 0.00 0.00 48 1019.0
20260901183103 80 0 1.7 0.0 0.00 0.00 0.00 48 1019.0
20260901183010 80 318 0.0 0.0 0.00 0.00 0.00 47 1019.3
20260901183003 80 0 1.7 0.0 0.00 0.00 0.00 48 1019.0
20260901182903 81 0 1.7 0.0 0.00 0.00 0.00 48 1019.0
20260901182803 81 0 1.7 0.0 0.00 0.00 0.00 48 1019.0
20260901182703 81 0 1.7 0.0 0.00 0.00 0.00 48 1018.9
20260901182603 81 0 1.7 0.9 0.00 0.00 0.00 47 1018.9
20260901182507 80 318 0.0 1.7 0.00 0.00 0.00 47 1019.2
20260901182503 81 111 1.7 0.9 0.00 0.00 0.00 48 1018.9
20260901182403 81 111 1.7 0.9 0.00 0.00 0.00 47 1018.9
20260901182305 81 111 1.7 0.9 0.00 0.00 0.00 47 1018.9
20260901182203 81 111 1.7 1.7 0.00 0.00 0.00 47 1018.9
20260901182103 81 134 1.7 1.7 0.00 0.00 0.00 47 1018.9
20260901182005 80 318 0.0 1.7 0.00 0.00 0.00 47 1019.1
20260901182003 81 144 1.7 1.7 0.00 0.00 0.00 47 1018.9
20260901181903 81 144 1.7 1.7 0.00 0.00 0.00 47 1018.8
20260901181803 81 144 1.7 1.7 0.00 0.00 0.00 47 1018.8
20260901181703 81 144 1.7 1.7 0.00 0.00 0.00 47 1018.8
20260901181603 81 156 1.7 1.7 0.00 0.00 0.00 47 1018.8
20260901181522 80 111 0.0 1.7 0.00 0.00 0.00 47 1019.1
20260901181503 81 169 1.7 1.7 0.00 0.00 0.00 47 1018.8
20260901181403 81 190 1.7 1.7 0.00 0.00 0.00 47 1018.8
20260901181303 81 190 1.7 1.7 0.00 0.00 0.00 47 1018.8
20260901181203 81 224 1.7 1.7 0.00 0.00 0.00 47 1018.8
20260901181103 81 302 1.7 2.6 0.00 0.00 0.00 47 1018.8
20260901181007 81 177 0.0 2.6 0.00 0.00 0.00 47 1019.1
20260901181003 81 312 1.7 2.6 0.00 0.00 0.00 47 1018.8
20260901180803 81 313 1.7 2.6 0.00 0.00 0.00 47 1018.8
20260901180703 81 308 1.7 2.6 0.00 0.00 0.00 47 1018.7
20260901180604 81 316 1.7 2.6 0.00 0.00 0.00 47 1018.7
20260901180511 81 309 0.0 3.5 0.00 0.00 0.00 46 1019.0
20260901180504 81 313 1.7 2.6 0.00 0.00 0.00 47 1018.7
20260901180403 81 309 1.7 2.6 0.00 0.00 0.00 47 1018.7
20260901180303 81 305 1.7 2.6 0.00 0.00 0.00 47 1018.7
20260901180203 81 313 1.7 2.6 0.00 0.00 0.00 46 1018.6
20260901180024 81 312 0.0 3.5 0.00 0.00 0.00 46 1018.9
20260901175903 81 312 1.7 3.5 0.00 0.00 0.00 47 1018.6
20260901175803 81 307 1.7 3.5 0.00 0.00 0.00 47 1018.6
20260901175703 81 306 1.7 3.5 0.00 0.00 0.00 47 1018.5
20260901175514 81 302 0.9 3.5 0.00 0.00 0.00 46 1018.8
20260901175503 81 306 1.7 3.5 0.00 0.00 0.00 47 1018.5
20260901175403 81 319 1.7 3.5 0.00 0.00 0.00 47 1018.5
20260901175305 81 321 1.7 3.5 0.00 0.00 0.00 47 1018.5
20260901175203 81 310 1.7 3.5 0.00 0.00 0.00 47 1018.5
20260901175103 81 320 1.7 3.5 0.00 0.00 0.00 47 1018.5
20260901175014 81 297 0.9 3.5 0.00 0.00 0.00 46 1018.8
20260901175003 81 322 1.7 3.5 0.00 0.00 0.00 47 1018.5
20260901174903 81 317 1.7 3.5 0.00 0.00 0.00 47 1018.5
20260901174803 81 322 1.7 3.5 0.00 0.00 0.00 47 1018.4
20260901174703 81 322 1.7 3.5 0.00 0.00 0.00 47 1018.4
20260901174603 81 316 1.7 3.5 0.00 0.00 0.00 47 1018.4
20260901174529 81 304 1.7 3.5 0.00 0.00 0.00 47 1018.7
20260901174503 81 317 1.7 3.5 0.00 0.00 0.00 47 1018.4
20260901174403 81 316 1.7 3.5 0.00 0.00 0.00 47 1018.4
20260901174303 81 326 1.7 3.5 0.00 0.00 0.00 47 1018.3
20260901174103 81 322 1.7 3.5 0.00 0.00 0.00 47 1018.3
20260901174017 81 325 0.9 3.5 0.00 0.00 0.00 47 1018.5
20260901174003 81 330 1.7 3.5 0.00 0.00 0.00 47 1018.2
20260901173803 81 347 1.7 3.5 0.00 0.00 0.00 47 1018.3
20260901173703 81 354 1.7 3.5 0.00 0.00 0.00 47 1018.2
20260901173603 81 1 1.7 3.5 0.00 0.00 0.00 47 1018.2
20260901173504 81 315 0.9 3.5 0.00 0.00 0.00 46 1018.5
20260901173403 81 3 1.7 3.5 0.00 0.00 0.00 47 1018.2
20260901173303 81 351 1.7 3.5 0.00 0.00 0.00 47 1018.2
20260901173203 81 3 1.7 4.3 0.00 0.00 0.00 47 1018.2
20260901173015 81 9 1.7 3.5 0.00 0.00 0.00 47 1018.4
20260901172903 82 346 1.7 4.3 0.00 0.00 0.00 47 1018.2
20260901172803 82 344 1.7 4.3 0.00 0.00 0.00 47 1018.2
20260901172717 82 351 1.7 4.3 0.00 0.00 0.00 47 1018.2
20260901172603 82 351 1.7 4.3 0.00 0.00 0.00 47 1018.1
20260901172507 81 300 0.9 3.5 0.00 0.00 0.00 46 1018.4
20260901172403 82 351 1.7 4.3 0.00 0.00 0.00 47 1018.1
20260901172305 82 354 1.7 4.3 0.00 0.00 0.00 47 1018.1
20260901172203 82 356 1.7 4.3 0.00 0.00 0.00 47 1018.1
20260901172103 82 352 1.7 2.6 0.00 0.00 0.00 47 1018.0
20260901172008 81 82 0.9 2.6 0.00 0.00 0.00 46 1018.3
20260901172003 82 345 1.7 2.6 0.00 0.00 0.00 47 1018.1
20260901171903 82 3 1.7 2.6 0.00 0.00 0.00 46 1018.0
20260901171803 82 12 1.7 2.6 0.00 0.00 0.00 47 1018.0
20260901171703 82 6 1.7 3.5 0.00 0.00 0.00 47 1018.0
20260901171603 82 345 1.7 3.5 0.00 0.00 0.00 46 1018.0
20260901171518 82 340 0.0 3.5 0.00 0.00 0.00 46 1018.3
20260901171503 82 347 1.7 3.5 0.00 0.00 0.00 46 1018.0
20260901171403 82 356 1.7 3.5 0.00 0.00 0.00 46 1018.0
20260901171303 82 350 1.7 3.5 0.00 0.00 0.00 46 1017.9
20260901171103 82 343 1.7 3.5 0.00 0.00 0.00 46 1017.9
20260901171008 82 64 0.0 3.5 0.00 0.00 0.00 46 1018.2
20260901171003 82 355 1.7 3.5 0.00 0.00 0.00 46 1017.9
20260901170903 82 5 1.7 3.5 0.00 0.00 0.00 46 1017.9
20260901170803 82 4 1.7 3.5 0.00 0.00 0.00 46 1017.9
20260901170703 82 12 1.7 3.5 0.00 0.00 0.00 46 1017.9
20260901170603 82 59 1.7 1.7 0.00 0.00 0.00 46 1017.9
20260901170511 82 349 0.9 3.5 0.00 0.00 0.00 45 1018.2
20260901170503 82 71 1.7 5.2 0.00 0.00 0.00 46 1017.9
20260901170403 82 88 1.7 5.2 0.00 0.00 0.00 46 1017.9
20260901170203 83 21 1.7 5.2 0.00 0.00 0.00 46 1017.8
20260901170019 82 96 0.9 4.3 0.00 0.00 0.00 45 1018.1
20260901165903 83 328 1.7 5.2 0.00 0.00 0.00 46 1017.8
20260901165803 83 306 1.7 5.2 0.00 0.00 0.00 46 1017.8
20260901165603 83 292 1.7 5.2 0.00 0.00 0.00 46 1017.8
20260901165512 82 234 0.9 4.3 0.00 0.00 0.00 45 1018.1
20260901165503 83 305 1.7 5.2 0.00 0.00 0.00 46 1017.7
20260901165403 83 310 1.7 4.3 0.00 0.00 0.00 46 1017.8
20260901165306 83 346 1.7 2.6 0.00 0.00 0.00 46 1017.8
20260901165203 83 335 1.7 2.6 0.00 0.00 0.00 46 1017.8
20260901165104 83 335 1.7 2.6 0.00 0.00 0.00 46 1017.8
20260901165012 83 9 0.0 2.6 0.00 0.00 0.00 46 1018.1
20260901165004 83 326 1.7 2.6 0.00 0.00 0.00 46 1017.7
20260901164903 83 333 1.7 2.6 0.00 0.00 0.00 46 1017.7
20260901164803 83 327 1.7 2.6 0.00 0.00 0.00 46 1017.7
20260901164703 83 325 1.7 2.6 0.00 0.00 0.00 46 1017.7
20260901164603 83 333 1.7 2.6 0.00 0.00 0.00 46 1017.7
20260901164528 83 339 0.9 1.7 0.00 0.00 0.00 45 1018.0
20260901164503 83 327 1.7 2.6 0.00 0.00 0.00 46 1017.7
20260901164403 83 337 1.7 1.7 0.00 0.00 0.00 46 1017.6
20260901164303 83 329 1.7 2.6 0.00 0.00 0.00 46 1017.7
20260901164203 83 331 1.7 2.6 0.00 0.00 0.00 46 1017.6
20260901164103 83 324 1.7 2.6 0.00 0.00 0.00 46 1017.7
20260901164013 83 303 0.9 2.6 0.00 0.00 0.00 45 1018.0
20260901164003 83 345 1.7 2.6 0.00 0.00 0.00 46 1017.6
20260901163903 83 333 1.7 2.6 0.00 0.00 0.00 46 1017.6
20260901163803 83 337 1.7 2.6 0.00 0.00 0.00 46 1017.6
20260901163703 84 339 1.7 2.6 0.00 0.00 0.00 46 1017.6
20260901163515 83 300 0.9 2.6 0.00 0.00 0.00 45 1017.8
20260901163403 84 348 1.7 2.6 0.00 0.00 0.00 46 1017.6
20260901163303 84 39 1.7 2.6 0.00 0.00 0.00 46 1017.6
20260901163203 84 43 1.7 2.6 0.00 0.00 0.00 46 1017.6
20260901163103 84 35 1.7 2.6 0.00 0.00 0.00 46 1017.6
20260901163032 83 78 0.9 3.5 0.00 0.00 0.00 45 1017.8
20260901163003 84 33 1.7 1.7 0.00 0.00 0.00 46 1017.5
20260901162903 84 39 1.7 4.3 0.00 0.00 0.00 45 1017.5
20260901162803 84 3 1.7 4.3 0.00 0.00 0.00 45 1017.5
20260901162703 84 348 1.7 4.3 0.00 0.00 0.00 45 1017.5
20260901162617 84 346 1.7 4.3 0.00 0.00 0.00 45 1017.5
20260901162504 83 82 0.9 4.3 0.00 0.00 0.00 45 1017.7
20260901162306 84 328 1.7 4.3 0.00 0.00 0.00 45 1017.4
20260901162203 84 331 1.7 4.3 0.00 0.00 0.00 45 1017.5
20260901162103 84 329 1.7 4.3 0.00 0.00 0.00 45 1017.4
20260901162003 84 65 1.7 4.3 0.00 0.00 0.00 44 1017.7
20260901161903 84 335 1.7 4.3 0.00 0.00 0.00 45 1017.5
20260901161703 84 325 1.7 4.3 0.00 0.00 0.00 45 1017.4
20260901161603 84 322 1.7 4.3 0.00 0.00 0.00 45 1017.4
20260901161524 84 294 0.9 3.5 0.00 0.00 0.00 45 1017.7
20260901161503 84 333 1.7 4.3 0.00 0.00 0.00 45 1017.4
20260901161403 84 331 1.7 4.3 0.00 0.00 0.00 45 1017.4
20260901161303 84 331 1.7 4.3 0.00 0.00 0.00 45 1017.4
20260901161203 84 328 1.7 4.3 0.00 0.00 0.00 45 1017.4
20260901161103 84 332 1.7 4.3 0.00 0.00 0.00 45 1017.4
20260901161008 84 56 0.9 4.3 0.00 0.00 0.00 44 1017.7
20260901161003 84 328 1.7 4.3 0.00 0.00 0.00 45 1017.4
20260901160903 84 326 1.7 4.3 0.00 0.00 0.00 45 1017.4
20260901160803 84 338 1.7 8.7 0.00 0.00 0.00 45 1017.3
20260901160703 84 344 1.7 8.7 0.00 0.00 0.00 45 1017.3
20260901160603 84 340 1.7 8.7 0.00 0.00 0.00 45 1017.3
20260901160509 84 352 1.7 7.8 0.00 0.00 0.00 44 1017.6
20260901160503 84 341 1.7 8.7 0.00 0.00 0.00 45 1017.3
20260901160403 84 349 1.7 8.7 0.00 0.00 0.00 45 1017.3
20260901160303 84 353 1.7 8.7 0.00 0.00 0.00 45 1017.3
20260901160203 84 340 1.7 8.7 0.00 0.00 0.00 45 1017.3
20260901160020 84 102 1.7 7.8 0.00 0.00 0.00 44 1017.6
20260901160003 84 324 1.7 8.7 0.00 0.00 0.00 45 1017.4
20260901155903 84 327 1.7 8.7 0.00 0.00 0.00 44 1017.3
20260901155803 84 327 1.7 8.7 0.00 0.00 0.00 45 1017.3
20260901155703 85 334 1.7 7.8 0.00 0.00 0.00 45 1017.3
20260901155603 85 344 1.7 7.8 0.00 0.00 0.00 45 1017.3
20260901155510 84 360 2.6 7.0 0.00 0.00 0.00 44 1017.6
20260901155503 85 347 1.7 7.8 0.00 0.00 0.00 45 1017.3
20260901155403 85 355 1.7 7.8 0.00 0.00 0.00 45 1017.3
20260901155306 85 357 1.7 7.8 0.00 0.00 0.00 44 1017.3
20260901155203 85 9 1.7 4.3 0.00 0.00 0.00 45 1017.2
20260901155103 85 19 1.7 3.5 0.00 0.00 0.00 45 1017.2
20260901155013 84 344 1.7 3.5 0.00 0.00 0.00 44 1017.5
20260901155003 85 45 1.7 3.5 0.00 0.00 0.00 45 1017.3
20260901154903 85 44 1.7 3.5 0.00 0.00 0.00 45 1017.2
20260901154803 85 41 1.7 3.5 0.00 0.00 0.00 45 1017.2
20260901154703 85 17 1.7 3.5 0.00 0.00 0.00 44 1017.2
20260901154603 85 20 1.7 2.6 0.00 0.00 0.00 44 1017.3
20260901154525 84 92 0.9 3.5 0.00 0.00 0.00 44 1017.6
20260901154503 85 360 1.7 2.6 0.00 0.00 0.00 44 1017.3
20260901154403 85 343 1.7 3.5 0.00 0.00 0.00 44 1017.3
20260901154303 85 345 1.7 3.5 0.00 0.00 0.00 44 1017.2
20260901154203 85 28 1.7 3.5 0.00 0.00 0.00 44 1017.2
20260901154103 85 19 1.7 3.5 0.00 0.00 0.00 44 1017.2
20260901154011 84 95 0.9 3.5 0.00 0.00 0.00 44 1017.5
20260901154003 85 30 1.7 3.5 0.00 0.00 0.00 44 1017.2
20260901153903 85 68 1.7 3.5 0.00 0.00 0.00 44 1017.2
20260901153803 85 32 1.7 3.5 0.00 0.00 0.00 44 1017.2
20260901153703 85 8 1.7 3.5 0.00 0.00 0.00 44 1017.2
20260901153513 84 288 0.9 7.8 0.00 0.00 0.00 44 1017.5
20260901153503 85 334 1.7 3.5 0.00 0.00 0.00 44 1017.2
20260901153403 85 30 1.7 3.5 0.00 0.00 0.00 44 1017.2
20260901153303 85 336 1.7 8.7 0.00 0.00 0.00 44 1017.2
20260901153203 85 309 1.7 8.7 0.00 0.00 0.00 44 1017.2
20260901153118 85 306 1.7 8.7 0.00 0.00 0.00 44 1017.2
20260901153030 85 90 2.6 8.7 0.00 0.00 0.00 44 1017.5
20260901153003 85 299 1.7 8.7 0.00 0.00 0.00 44 1017.2
20260901152803 85 308 1.7 8.7 0.00 0.00 0.00 44 1017.2
20260901152703 85 316 1.7 8.7 0.00 0.00 0.00 44 1017.2
20260901152603 85 333 1.7 8.7 0.00 0.00 0.00 44 1017.2
20260901152517 85 288 2.6 8.7 0.00 0.00 0.00 43 1017.5
20260901152503 85 355 1.7 8.7 0.00 0.00 0.00 44 1017.1
20260901152403 85 344 1.7 8.7 0.00 0.00 0.00 44 1017.2
20260901152305 85 353 1.7 8.7 0.00 0.00 0.00 43 1017.1
20260901152203 86 17 1.7 8.7 0.00 0.00 0.00 43 1017.1
20260901152103 86 44 1.7 8.7 0.00 0.00 0.00 43 1017.1
20260901152017 85 299 2.6 7.8 0.00 0.00 0.00 43 1017.4
20260901152003 86 40 1.7 8.7 0.00 0.00 0.00 43 1017.1
20260901151903 86 22 1.7 8.7 0.00 0.00 0.00 43 1017.1
20260901151803 86 8 1.7 8.7 0.00 0.00 0.00 43 1017.0
20260901151703 86 354 1.7 6.1 0.00 0.00 0.00 43 1017.1
20260901151603 86 340 1.7 6.1 0.00 0.00 0.00 43 1017.0
20260901151525 85 65 2.6 7.0 0.00 0.00 0.00 43 1017.3
20260901151503 86 327 1.7 6.1 0.00 0.00 0.00 43 1017.0
20260901151403 86 325 1.7 6.1 0.00 0.00 0.00 43 1017.0
20260901151303 86 325 1.7 7.8 0.00 0.00 0.00 43 1017.0
20260901151103 86 314 1.7 7.8 0.00 0.00 0.00 43 1017.0
20260901151006 86 346 3.5 7.0 0.00 0.00 0.00 43 1017.3
20260901151003 86 304 1.7 7.8 0.00 0.00 0.00 43 1017.0
20260901150917 86 309 1.7 7.8 0.00 0.00 0.00 43 1017.0
20260901150818 86 307 1.7 7.8 0.00 0.00 0.00 43 1017.0
20260901150505 85 238 2.6 7.0 0.00 0.00 0.00 42 1017.3
20260901150503 86 315 1.7 7.8 0.00 0.00 0.00 43 1017.0
20260901150403 86 323 1.7 7.8 0.00 0.00 0.00 43 1017.0
20260901150303 86 338 1.7 7.8 0.00 0.00 0.00 43 1017.0
20260901150203 86 58 1.7 7.0 0.00 0.00 0.00 43 1017.0
20260901150103 86 41 1.7 7.0 0.00 0.00 0.00 43 1017.0
20260901150030 86 240 2.6 7.0 0.00 0.00 0.00 42 1017.2
20260901150003 86 48 1.7 7.0 0.00 0.00 0.00 43 1017.0
20260901145917 86 35 1.7 7.0 0.00 0.00 0.00 43 1016.9
20260901145803 86 53 1.7 7.0 0.00 0.00 0.00 43 1016.9
20260901145603 86 66 1.7 7.0 0.00 0.00 0.00 43 1016.8
20260901145507 86 201 3.5 7.8 0.00 0.00 0.00 42 1017.1
20260901145503 86 37 1.7 7.0 0.00 0.00 0.00 42 1016.9
20260901145403 86 34 1.7 7.0 0.00 0.00 0.00 42 1016.9
20260901145306 86 17 1.7 7.0 0.00 0.00 0.00 42 1016.9
20260901145203 86 345 1.7 7.0 0.00 0.00 0.00 42 1016.8
20260901145103 86 23 1.7 7.0 0.00 0.00 0.00 42 1016.9
20260901145009 86 53 2.6 7.8 0.00 0.00 0.00 42 1017.2
20260901144903 86 319 1.7 9.6 0.00 0.00 0.00 42 1016.9
20260901144803 86 338 1.7 9.6 0.00 0.00 0.00 42 1016.9
20260901144603 87 325 1.7 9.6 0.00 0.00 0.00 42 1016.9
20260901144536 86 310 3.5 9.6 0.00 0.00 0.00 41 1017.1
20260901144503 87 348 1.7 9.6 0.00 0.00 0.00 42 1016.9
20260901144403 86 357 1.7 9.6 0.00 0.00 0.00 42 1016.9
20260901144303 86 346 1.7 9.6 0.00 0.00 0.00 42 1016.9
20260901144203 86 337 1.7 9.6 0.00 0.00 0.00 42 1016.8
20260901144103 86 332 1.7 9.6 0.00 0.00 0.00 42 1016.8
20260901144010 86 219 4.3 9.6 0.00 0.00 0.00 42 1017.1
20260901144003 86 337 1.7 9.6 0.00 0.00 0.00 42 1016.8
20260901143903 86 328 1.7 8.7 0.00 0.00 0.00 42 1016.8
20260901143803 86 331 1.7 8.7 0.00 0.00 0.00 42 1016.9
20260901143703 86 337 1.7 8.7 0.00 0.00 0.00 42 1016.7
20260901143515 86 60 3.5 8.7 0.00 0.00 0.00 42 1017.1
20260901143503 86 338 1.7 8.7 0.00 0.00 0.00 42 1016.8
20260901143403 86 346 1.7 7.0 0.00 0.00 0.00 42 1016.8
20260901143303 86 357 1.7 7.0 0.00 0.00 0.00 42 1016.8
20260901143203 86 32 1.7 7.0 0.00 0.00 0.00 42 1016.8
20260901143103 86 37 1.7 7.0 0.00 0.00 0.00 42 1016.8
20260901143028 86 281 3.5 10.4 0.00 0.00 0.00 41 1017.1
20260901143003 87 31 1.7 11.3 0.00 0.00 0.00 42 1016.8
20260901142903 87 24 1.7 11.3 0.00 0.00 0.00 42 1016.8
20260901142803 87 18 1.7 11.3 0.00 0.00 0.00 42 1016.9
20260901142703 87 3 1.7 11.3 0.00 0.00 0.00 42 1016.8
20260901142603 87 359 1.7 11.3 0.00 0.00 0.00 41 1016.9
20260901142516 87 10 3.5 11.3 0.00 0.00 0.00 41 1017.2
20260901142503 87 3 1.7 11.3 0.00 0.00 0.00 41 1016.8
20260901142403 87 354 1.7 11.3 0.00 0.00 0.00 41 1016.8
20260901142305 87 6 1.7 11.3 0.00 0.00 0.00 41 1016.8
20260901142103 88 359 1.7 11.3 0.00 0.00 0.00 40 1016.8
20260901142014 87 296 5.2 11.3 0.00 0.00 0.00 40 1017.1
20260901142003 88 13 1.7 11.3 0.00 0.00 0.00 40 1016.7
20260901141903 88 56 1.7 9.6 0.00 0.00 0.00 40 1016.7
20260901141803 87 46 1.7 7.8 0.00 0.00 0.00 40 1016.7
20260901141703 87 45 1.7 7.8 0.00 0.00 0.00 40 1016.6
20260901141603 87 42 1.7 7.8 0.00 0.00 0.00 40 1016.6
20260901141528 87 99 1.7 7.8 0.00 0.00 0.00 40 1016.9
20260901141503 87 15 1.7 7.8 0.00 0.00 0.00 40 1016.7
20260901141403 87 5 1.7 7.8 0.00 0.00 0.00 40 1016.6
20260901141303 87 356 1.7 7.8 0.00 0.00 0.00 40 1016.6
20260901141203 87 340 1.7 7.0 0.00 0.00 0.00 40 1016.6
20260901141103 87 337 1.7 7.0 0.00 0.00 0.00 40 1016.6
20260901141017 87 5 2.6 7.0 0.00 0.00 0.00 39 1016.8
20260901141003 87 339 1.7 7.0 0.00 0.00 0.00 40 1016.6
20260901140903 87 326 1.7 7.0 0.00 0.00 0.00 40 1016.5
20260901140803 87 334 1.7 7.0 0.00 0.00 0.00 40 1016.6
20260901140703 87 324 1.7 7.0 0.00 0.00 0.00 40 1016.6
20260901140603 88 338 1.7 7.0 0.00 0.00 0.00 40 1016.5
20260901140506 87 322 1.7 6.1 0.00 0.00 0.00 40 1016.8
20260901140503 88 331 1.7 7.0 0.00 0.00 0.00 40 1016.5
20260901140403 88 328 1.7 7.0 0.00 0.00 0.00 40 1016.5
20260901140203 88 330 1.7 7.0 0.00 0.00 0.00 40 1016.6
20260901140103 88 336 1.7 7.0 0.00 0.00 0.00 40 1016.5
20260901140014 87 10 3.5 7.8 0.00 0.00 0.00 39 1016.8
20260901140003 88 332 1.7 7.0 0.00 0.00 0.00 40 1016.4
20260901135803 88 331 1.7 7.0 0.00 0.00 0.00 40 1016.5
20260901135703 88 340 1.7 8.7 0.00 0.00 0.00 39 1016.5
20260901135603 89 326 1.7 8.7 0.00 0.00 0.00 39 1016.4
20260901135509 88 302 3.5 7.8 0.00 0.00 0.00 38 1016.7
20260901135503 89 327 1.7 8.7 0.00 0.00 0.00 39 1016.5
20260901135403 89 320 1.7 8.7 0.00 0.00 0.00 38 1016.3
20260901135305 89 317 1.7 8.7 0.00 0.00 0.00 38 1016.4
20260901135203 89 313 1.7 8.7 0.00 0.00 0.00 38 1016.6
20260901135103 90 306 1.7 8.7 0.00 0.00 0.00 38 1016.4
20260901135011 89 321 3.5 7.8 0.00 0.00 0.00 37 1016.7
20260901134903 90 300 1.7 8.7 0.00 0.00 0.00 37 1016.5
20260901134803 90 295 1.7 8.7 0.00 0.00 0.00 36 1016.4
20260901134703 90 286 1.7 8.7 0.00 0.00 0.00 35 1016.4
20260901134603 90 287 1.7 7.0 0.00 0.00 0.00 35 1016.4